ECMWFFLT2_sfc_temp_096.txt.gz
Temp
71 71 75 74 71 54 57 65 55 56 62 64 53 56 59 57 50 44 56 53 58 63 64 66 67 69 69 73 74 74 73 74 74 74 74 74 74 74 74 74 74 73 74 74 74 75 77 76 76 77 79 80 80 79 79 78 78 79 78 78 78 78 77
72 75 74 74 76 65 62 59 59 65 71 68 58 49 47 45 43 46 52 50 52 52 47 60 63 65 68 70 72 73 73 74 73 73 74 74 74 74 74 74 74 73 73 74 74 75 76 76 76 76 77 80 81 80 80 79 79 77 78 79 79 79 78
71 75 73 70 74 77 65 60 69 65 52 54 50 52 46 45 41 42 47 51 51 50 49 57 59 62 65 67 70 70 69 69 68 69 70 71 72 71 71 72 72 73 74 74 73 73 74 74 74 75 77 78 81 81 81 81 79 80 80 81 80 80 80
68 69 65 54 60 72 75 74 68 66 60 50 51 51 48 48 40 44 46 49 44 54 53 57 58 57 59 63 67 68 68 69 69 69 70 69 69 70 71 71 71 71 72 72 72 72 72 73 73 73 73 73 76 78 77 76 78 79 80 80 80 80 81
65 53 57 53 57 58 63 64 58 63 60 63 58 59 55 45 44 45 45 42 45 51 57 57 58 60 62 62 63 65 66 67 69 70 70 70 70 70 71 71 71 70 71 71 72 72 72 73 74 75 74 73 73 74 75 75 75 76 77 79 79 79 81
52 58 68 67 66 63 62 58 58 58 60 59 52 47 56 58 47 41 43 39 46 56 63 59 61 62 63 63 65 65 67 67 68 69 70 71 71 72 72 73 72 70 71 71 71 72 72 73 73 74 74 73 73 74 75 76 77 77 76 75 78 78 79
56 62 69 72 71 69 69 65 62 63 57 53 48 44 46 53 53 57 49 45 46 58 62 62 62 62 64 64 64 66 67 67 68 69 70 70 70 70 71 71 71 71 70 70 71 71 71 72 72 73 73 73 72 73 74 75 76 76 77 76 76 76 76
58 63 66 69 70 70 65 65 67 66 61 60 55 50 52 48 53 47 45 44 49 59 60 61 62 63 65 65 65 64 65 66 68 68 68 68 69 70 71 71 69 69 69 70 71 70 70 71 71 71 72 72 72 72 73 74 75 74 75 75 75 75 75
47 52 57 60 68 67 61 61 64 68 67 65 59 56 52 50 50 50 46 42 48 55 61 61 62 62 64 64 65 66 63 65 66 67 68 68 69 69 70 70 69 68 68 67 69 69 69 69 71 71 71 72 72 72 73 73 74 75 75 75 75 75 75
37 37 37 42 46 56 61 64 66 69 68 64 58 55 47 41 50 51 47 46 51 56 58 60 61 62 62 64 67 68 67 65 65 66 67 68 68 68 68 69 69 68 69 69 69 68 69 70 70 70 71 72 72 73 73 73 73 74 74 74 75 75 75
42 43 44 53 59 57 55 60 64 65 69 67 58 49 45 42 46 46 48 51 49 53 56 57 59 61 62 61 63 65 65 65 66 66 67 67 68 68 68 68 69 69 69 68 69 69 68 69 72 72 71 71 72 73 73 74 75 73 74 73 74 74 74
52 57 55 61 62 58 58 59 62 66 66 65 60 52 50 53 51 39 48 53 51 52 55 57 57 59 62 65 64 65 66 65 65 66 66 68 68 68 68 69 68 68 68 69 68 69 69 69 70 71 72 72 72 72 72 73 74 74 73 74 74 73 73
59 61 62 64 63 61 59 60 62 63 65 63 58 57 59 54 49 44 50 52 51 53 57 60 59 60 63 64 65 67 68 68 67 66 67 67 67 67 66 67 68 68 68 68 68 69 69 69 69 69 69 70 70 73 72 72 73 73 74 74 74 74 73
59 59 59 62 60 60 60 61 62 64 65 62 62 60 61 58 51 55 54 53 53 56 59 61 62 64 66 65 66 68 68 67 67 67 67 67 67 67 67 67 67 68 69 68 68 68 68 69 69 69 69 70 71 71 71 72 73 74 74 74 73 73 73
53 58 61 61 61 59 57 60 62 64 66 64 62 61 60 59 57 57 55 52 51 55 58 62 65 66 69 68 67 66 66 66 67 66 66 67 67 67 68 67 68 68 69 69 70 69 69 69 69 70 69 70 70 71 72 72 71 72 73 72 74 74 73
46 56 57 59 61 61 58 57 59 60 61 58 59 55 59 55 51 54 54 50 49 55 60 64 64 65 66 64 64 64 64 66 65 65 66 66 66 67 67 66 68 68 69 68 68 69 70 70 70 70 70 71 71 71 72 71 71 71 71 71 69 70 71
41 53 58 56 57 54 51 52 58 61 61 60 61 61 62 60 60 54 50 48 55 58 61 62 62 65 64 63 64 63 63 64 65 64 64 65 66 66 66 67 66 67 68 66 66 67 67 68 69 70 72 72 71 71 71 72 72 70 70 70 70 70 70
42 52 53 51 46 40 44 60 66 65 61 62 59 57 60 62 62 57 59 58 59 61 62 61 60 61 61 62 64 66 63 62 63 64 64 65 65 64 63 64 64 66 67 68 67 66 66 68 69 70 71 71 71 72 71 71 71 70 69 69 69 70 70
42 48 48 42 36 40 57 64 65 67 66 64 60 59 60 60 61 60 58 58 59 59 60 61 62 63 64 66 65 66 66 64 64 64 63 63 63 63 63 63 63 62 64 65 66 66 68 69 69 70 69 69 70 71 71 70 70 69 69 69 69 69 69
43 40 38 33 39 52 59 61 65 66 65 63 62 56 59 59 60 59 57 57 58 59 59 59 60 63 65 66 65 65 66 66 64 64 64 65 65 64 64 64 63 63 63 64 65 65 68 68 68 69 68 69 69 69 70 70 70 70 69 68 68 69 69
41 40 37 39 45 49 54 54 59 59 56 57 55 48 50 54 56 57 56 58 59 60 60 62 64 65 66 62 62 67 67 66 66 65 66 67 65 65 66 67 66 65 66 66 67 66 65 67 66 67 67 67 66 67 67 67 66 66 66 67 68 69 69
45 39 31 31 38 36 43 52 58 63 64 63 61 58 49 58 58 60 58 57 57 58 59 60 60 62 57 52 57 64 67 68 67 66 65 67 67 67 67 67 67 67 67 69 69 68 68 67 66 66 66 66 65 65 65 65 66 66 65 65 66 67 68
40 36 32 33 30 35 45 50 56 60 61 63 61 55 46 55 58 56 57 57 57 58 58 58 61 55 49 50 56 62 65 66 67 65 64 65 66 66 66 66 65 66 66 67 68 67 67 67 67 67 66 65 66 64 64 64 65 64 64 65 66 66 67
41 41 36 34 38 41 53 51 54 59 61 62 54 42 40 54 58 59 59 58 57 57 59 58 58 56 51 52 57 64 65 65 65 64 63 63 63 64 65 66 65 65 65 66 66 65 65 64 67 67 67 66 66 65 64 64 64 64 64 64 65 66 66
41 45 38 39 41 50 54 54 57 59 58 55 43 36 48 56 55 60 64 63 62 61 60 60 55 56 60 61 63 65 65 64 63 64 64 63 63 62 64 64 66 64 64 64 64 65 63 64 67 67 66 65 63 64 63 63 63 64 64 64 65 65 65
38 35 38 38 38 46 52 54 56 57 57 44 37 49 55 55 57 58 62 63 63 63 60 58 58 59 63 64 63 63 63 62 62 62 63 63 63 64 64 66 65 63 63 63 64 64 64 65 66 66 64 63 62 62 62 62 63 65 65 64 64 64 65
41 41 36 35 33 48 57 56 55 52 44 44 48 54 56 58 57 58 60 61 60 61 59 61 60 61 62 61 61 61 61 61 60 60 60 60 60 60 60 61 64 64 61 61 62 62 64 64 64 64 63 62 62 62 61 61 63 64 65 64 64 64 65
37 35 36 35 40 47 54 52 46 51 52 56 53 54 54 55 56 56 56 57 59 61 61 60 60 60 59 59 59 59 60 60 60 60 59 59 60 60 62 62 62 62 60 60 61 62 62 62 62 62 61 60 62 61 59 61 62 63 63 63 63 64 65
43 41 42 48 48 52 56 55 54 56 58 57 56 58 56 56 56 56 56 56 58 60 60 59 59 58 59 58 60 59 58 59 59 58 58 59 59 60 59 60 61 60 59 58 59 60 61 61 61 60 60 59 61 60 60 62 62 61 63 63 63 63 62
49 49 51 54 54 55 57 58 57 59 58 60 60 59 57 56 58 58 57 55 58 58 59 58 56 57 58 58 58 59 58 58 57 58 58 58 58 59 59 58 60 59 59 59 58 58 59 60 60 60 60 59 59 59 60 62 62 61 62 62 62 62 62
45 39 49 52 53 55 56 57 58 57 57 58 58 57 56 57 58 58 59 58 57 58 59 58 56 56 58 57 56 56 56 57 57 57 56 56 57 57 57 58 59 57 56 56 56 57 57 58 58 60 60 60 60 59 61 62 62 60 61 61 61 61 60
42 46 51 51 54 54 57 58 57 56 56 58 58 58 58 58 58 59 59 59 59 59 57 57 57 55 56 55 54 55 55 55 55 55 55 54 54 54 55 56 56 55 55 54 55 55 56 56 57 58 59 59 60 60 61 62 61 60 61 61 60 59 60
45 48 50 52 52 55 55 55 56 56 57 57 56 58 58 58 59 59 59 60 60 59 57 56 56 55 54 56 55 55 52 53 53 53 54 53 54 54 54 55 55 53 54 55 55 55 55 55 55 56 57 58 59 58 59 60 59 59 60 61 60 59 59
37 42 46 48 44 45 51 53 54 55 56 56 57 55 56 57 57 57 58 58 58 59 57 57 57 55 53 53 54 53 53 53 53 53 53 53 54 53 54 55 54 55 56 54 54 55 54 54 55 56 57 57 58 59 59 59 58 58 60 59 58 58 59
39 46 47 50 50 47 52 53 54 53 55 55 54 55 55 57 58 57 58 56 55 58 57 58 57 55 55 54 54 54 54 53 54 54 53 53 52 53 53 52 52 52 53 56 54 55 54 55 56 56 56 57 57 58 59 59 58 57 56 57 59 57 59
48 50 51 53 49 50 52 53 54 55 54 54 54 54 55 56 55 57 58 58 57 54 57 56 55 55 54 54 55 54 53 53 54 53 53 54 53 54 52 52 53 53 53 54 54 55 53 55 54 54 55 56 56 58 59 59 58 56 56 56 56 56 57
48 52 54 54 53 52 53 54 54 54 55 55 54 56 55 54 56 57 56 56 57 58 55 54 53 55 55 54 55 54 53 53 54 54 55 56 55 53 53 54 53 53 52 53 53 53 52 53 55 56 55 56 56 58 58 59 58 57 57 57 57 56 57

ECMWFFLT2_sfc_temp_102.txt.gz
Temp
61 61 63 64 64 51 53 57 50 55 60 59 48 50 50 48 43 42 46 47 49 54 59 62 62 63 63 66 67 68 68 70 70 70 72 73 71 73 72 72 72 72 73 73 75 76 76 77 77 77 76 76 76 76 75 75 75 75 75 76 75 76 75
62 60 65 64 64 59 55 49 55 58 61 57 52 45 40 37 39 41 46 45 45 47 49 58 60 59 61 63 65 67 67 68 68 70 71 73 74 74 73 72 71 72 72 73 74 76 77 76 77 77 76 77 77 77 76 76 75 74 75 76 76 76 75
60 62 62 62 66 63 59 55 61 61 48 51 46 47 40 39 34 36 42 47 46 45 49 55 57 58 59 61 63 64 65 67 67 68 70 72 73 69 68 70 70 70 70 71 72 74 76 76 76 77 77 77 77 77 77 78 76 77 77 77 77 77 77
60 56 55 50 48 58 62 63 62 57 52 44 48 48 44 46 38 41 40 44 42 49 51 55 57 59 60 61 62 63 64 65 66 67 67 68 68 67 69 69 69 70 70 71 72 73 73 73 74 75 76 77 77 77 77 76 77 76 76 77 77 77 77
56 54 54 47 49 53 58 52 53 59 52 54 54 53 50 43 40 39 40 40 44 48 56 58 59 61 62 62 61 62 63 65 66 67 66 67 67 67 68 68 68 68 70 71 71 72 72 73 74 75 75 76 76 76 76 76 75 75 75 76 77 77 77
46 49 52 57 54 51 52 47 53 49 51 51 47 44 50 47 44 39 41 39 45 54 62 60 61 62 62 63 62 61 62 63 64 65 67 68 67 67 68 68 69 69 70 71 71 72 72 72 72 73 74 73 74 75 76 76 76 75 75 76 76 76 77
52 56 61 59 59 58 55 55 57 53 50 46 39 39 44 47 47 50 45 40 42 55 62 62 62 63 63 63 63 61 62 62 63 65 66 66 68 68 68 68 69 69 70 70 70 71 71 71 71 72 73 73 73 74 74 75 76 75 76 77 77 77 76
49 55 56 58 58 57 55 52 53 54 53 55 48 42 44 45 46 42 39 39 44 57 62 62 62 63 63 63 63 62 62 63 63 63 64 65 65 67 68 69 69 69 69 69 70 70 70 70 70 71 71 72 74 74 75 75 75 75 75 76 76 76 75
40 43 52 54 58 56 50 52 52 55 54 54 49 47 44 46 46 45 45 40 45 56 62 62 62 62 62 61 62 63 61 62 63 64 64 65 65 66 66 67 67 68 68 69 69 70 70 70 70 70 70 71 72 72 73 74 75 75 75 76 76 76 76
38 37 36 40 44 49 52 53 53 54 55 50 52 51 45 42 46 46 44 41 49 57 60 59 61 60 60 61 62 63 63 62 63 64 64 65 66 66 66 66 66 67 67 68 68 69 69 69 69 69 70 71 71 72 73 74 74 74 74 73 74 75 76
43 44 44 50 55 48 48 54 53 53 53 53 47 44 44 46 42 46 43 48 50 53 55 57 58 59 58 58 60 61 62 63 63 64 65 65 65 65 65 65 66 66 67 67 68 68 69 70 70 70 70 71 72 71 71 72 72 73 73 73 74 74 74
49 51 50 56 56 51 50 50 52 53 53 51 50 50 45 45 48 40 45 52 51 53 56 57 57 58 59 60 60 61 62 63 63 64 64 65 65 65 65 65 65 65 66 66 67 68 69 70 70 70 71 71 71 71 71 72 72 72 73 73 72 72 72
52 53 53 55 55 54 52 51 51 51 53 50 52 47 48 51 49 48 48 52 52 55 58 59 58 59 59 60 61 62 62 63 64 64 63 63 64 64 64 64 65 65 66 66 67 67 68 68 68 68 69 69 70 71 72 72 73 72 72 72 72 72 71
52 53 54 56 55 54 52 52 52 53 52 51 49 49 49 50 46 49 51 53 54 58 59 59 59 61 61 61 63 63 63 62 62 62 63 63 63 64 64 64 65 65 65 66 66 67 67 68 68 68 68 69 69 70 70 71 72 72 72 72 71 71 71
48 52 55 57 56 55 51 51 53 53 53 53 52 51 52 53 51 52 53 53 52 57 61 60 61 61 62 62 62 61 61 62 62 63 63 63 63 63 64 64 64 65 66 66 66 66 66 66 67 67 68 68 69 69 69 70 70 71 72 71 72 71 71
43 50 51 53 55 56 52 50 51 50 50 49 49 47 52 50 49 53 53 51 51 56 60 61 60 60 59 58 58 59 60 63 63 63 62 62 63 63 63 64 64 64 65 65 65 66 66 67 67 67 67 67 68 68 69 69 69 70 71 71 71 71 71
39 48 50 52 53 54 50 47 50 50 50 51 52 51 53 52 56 52 49 51 57 58 60 57 57 58 58 58 58 58 60 62 64 62 62 62 63 63 62 63 63 62 64 65 65 66 66 66 67 67 68 68 67 67 67 68 70 70 69 69 69 69 70
38 46 48 49 43 39 39 53 57 53 48 49 48 47 50 53 53 51 54 56 58 59 58 56 55 57 57 57 58 60 60 60 62 63 63 63 63 62 62 63 62 63 64 65 65 65 66 67 68 68 68 67 67 68 68 68 68 68 69 69 68 69 69
39 39 43 42 35 39 50 56 58 57 55 54 51 51 52 52 53 55 56 57 59 59 59 58 58 58 59 61 61 61 61 60 61 61 62 62 62 62 62 62 62 62 63 64 64 64 65 66 66 67 66 67 66 66 66 66 66 65 66 67 67 67 68
37 35 34 31 34 43 51 55 57 60 58 55 53 52 53 53 52 53 55 58 60 60 59 58 59 59 59 60 60 60 62 62 60 61 61 62 62 61 61 61 62 63 63 63 62 62 65 65 65 66 65 66 66 65 66 66 66 65 65 65 65 66 66
37 34 32 36 43 47 52 53 55 55 51 51 49 44 48 52 53 53 55 58 59 59 58 59 59 60 61 57 56 61 61 61 62 62 63 63 63 62 63 64 63 64 64 64 64 64 63 64 63 63 64 64 63 64 63 64 64 64 64 64 64 64 64
33 30 35 33 38 35 41 49 54 58 58 56 53 48 45 52 54 56 56 55 57 57 58 58 59 60 56 50 51 57 60 61 60 62 63 64 64 64 64 64 64 64 64 65 65 65 64 63 63 63 63 63 62 62 62 62 63 63 62 62 63 63 64
36 31 27 30 29 35 40 51 55 57 57 57 55 49 42 50 53 57 58 56 55 56 57 57 59 55 48 46 51 56 59 60 61 60 60 61 63 64 64 63 62 63 63 64 64 63 63 62 62 63 63 62 62 61 61 62 62 61 61 61 62 62 63
34 30 31 35 33 41 50 50 52 57 57 59 54 42 40 50 55 57 59 57 57 56 56 57 55 53 46 46 51 57 58 59 59 59 59 59 60 61 62 62 62 61 62 62 61 61 60 60 63 63 63 63 62 61 61 61 60 60 60 61 62 63 63
38 41 33 35 38 46 48 49 54 55 57 56 43 35 45 54 57 58 59 58 58 57 55 55 52 54 56 53 54 57 58 59 59 60 60 60 61 61 61 62 63 61 60 60 59 59 59 60 62 63 63 61 59 60 60 59 59 59 60 61 62 62 62
36 33 38 35 36 43 49 51 52 51 54 42 39 47 49 56 56 58 59 58 58 57 56 55 54 54 57 57 58 57 57 56 56 59 60 60 61 62 63 63 61 60 60 59 59 60 59 61 62 62 61 60 59 59 58 58 59 60 61 61 61 62 61
33 26 30 30 32 47 49 50 53 55 49 46 47 51 54 58 59 58 58 58 58 58 56 57 56 56 56 57 57 57 57 57 56 57 58 57 58 58 58 59 61 60 58 58 58 58 59 59 59 61 61 59 58 58 57 57 59 61 61 61 61 61 62
34 31 34 35 41 46 48 49 48 50 51 52 50 50 52 56 57 58 58 57 58 58 57 57 57 57 56 56 57 57 57 58 58 57 57 58 58 59 60 60 59 59 57 57 57 57 58 58 58 59 60 59 59 57 56 58 59 61 61 61 60 61 61
38 39 35 38 40 45 47 49 48 48 51 50 49 49 51 54 55 56 57 58 57 57 58 57 57 56 57 57 58 57 57 57 56 56 57 57 57 58 58 59 60 59 58 56 56 56 56 57 57 57 58 58 58 57 57 59 58 59 60 61 61 59 59
45 44 46 47 46 47 49 50 50 50 51 53 52 53 54 54 54 55 58 57 56 56 57 57 55 57 57 57 57 57 57 57 57 57 57 56 57 58 58 58 59 58 58 57 56 55 55 56 57 57 57 57 56 56 58 59 58 59 60 60 60 58 59
41 40 43 45 46 47 48 49 50 51 51 50 51 51 51 52 54 55 55 56 55 55 55 55 54 55 57 56 56 56 55 55 55 55 55 55 56 56 56 57 57 56 56 56 56 55 55 55 56 56 56 57 56 57 57 58 59 59 61 59 59 58 57
44 44 47 47 46 48 49 48 48 49 50 51 51 50 51 52 53 56 56 56 55 55 54 54 53 52 53 53 53 54 54 54 54 54 54 54 54 55 55 56 55 55 55 54 55 55 54 54 55 56 56 56 56 56 57 57 58 59 60 60 57 56 57
40 43 46 46 46 49 50 50 50 49 48 50 51 51 52 53 54 54 54 56 56 55 54 56 54 53 54 54 53 53 53 53 53 53 53 54 54 53 53 54 55 54 54 54 54 55 54 53 54 54 54 55 56 56 56 57 57 58 58 58 57 56 57
39 42 47 46 46 43 47 49 50 50 50 49 51 52 52 52 51 51 53 53 55 58 58 58 58 56 55 55 55 53 52 52 53 53 53 53 53 53 54 54 54 55 55 54 54 54 52 53 54 54 54 55 55 57 57 56 57 58 58 57 56 56 57
38 41 41 44 44 42 50 50 51 49 50 51 51 51 50 51 51 51 52 51 52 54 55 56 57 56 56 55 54 53 53 53 53 53 53 53 52 52 53 53 53 53 53 55 54 54 53 54 54 54 54 54 55 55 56 56 56 55 56 56 56 56 58
45 48 43 45 47 50 50 49 48 50 50 51 50 50 51 52 52 52 52 52 52 51 53 53 55 56 56 55 54 54 53 53 52 52 53 53 53 53 53 54 53 54 54 54 54 54 53 54 53 53 54 53 54 55 55 55 55 54 54 54 54 54 56
51 49 45 46 46 51 49 50 51 49 52 53 52 51 53 52 52 53 52 51 51 53 51 52 53 53 54 53 54 54 53 52 53 52 53 53 53 53 53 53 53 54 54 54 53 52 52 52 53 53 52 53 53 54 54 54 55 54 54 54 53 54 56

ECMWFFLT2_sfc_temp_105.txt.gz
Temp
71 75 74 73 77 60 67 67 62 67 76 72 61 61 62 62 60 56 64 64 67 72 71 70 72 73 73 75 76 78 78 78 77 77 77 78 77 76 74 73 78 80 83 82 83 83 84 84 85 85 83 84 83 82 82 81 82 83 83 82 83 83 83
71 72 74 75 75 77 68 62 69 72 74 74 66 58 57 58 54 56 60 61 63 61 61 68 70 70 71 72 74 76 77 77 76 77 78 78 77 75 74 73 75 77 79 81 82 84 84 83 85 85 83 85 84 84 83 82 82 81 83 84 84 84 83
72 71 71 71 72 75 74 71 79 68 58 58 62 62 52 52 51 55 57 60 61 63 65 66 64 65 66 70 72 73 74 76 76 77 79 79 79 77 75 73 74 76 77 78 80 82 83 83 83 85 85 85 85 85 85 86 84 85 85 87 86 85 85
69 71 72 63 68 73 72 74 72 73 71 66 59 63 63 62 54 53 55 57 58 67 68 64 63 63 65 69 70 72 74 75 76 77 78 79 77 76 74 73 73 75 76 78 80 80 80 81 82 83 84 85 85 85 85 84 84 84 85 86 85 84 86
67 64 68 66 70 66 67 69 68 69 69 72 73 68 64 61 56 56 56 53 60 63 65 65 64 64 65 65 64 67 71 73 76 77 78 78 77 75 73 74 74 74 75 77 79 80 80 81 82 82 82 82 83 83 83 83 81 82 82 84 85 84 85
64 64 69 68 66 68 70 71 68 71 66 62 58 56 65 63 60 51 56 55 62 62 66 66 66 66 65 65 66 65 68 71 72 74 77 77 77 77 76 73 75 76 76 77 78 78 79 79 80 80 80 81 81 81 82 82 82 82 82 83 83 83 85
64 68 69 68 67 69 68 71 66 68 68 69 64 53 58 62 62 63 61 59 59 64 68 67 66 68 67 67 68 66 68 69 71 73 76 77 77 76 76 75 72 70 71 73 75 74 74 74 76 77 76 77 78 80 81 82 82 81 82 83 83 84 84
67 69 69 69 69 70 69 70 68 67 66 66 66 66 66 64 59 60 60 57 59 62 65 66 66 67 66 67 68 67 67 68 69 70 72 72 74 75 76 76 74 72 71 72 72 72 73 74 75 76 74 74 76 77 79 80 80 81 81 82 83 82 82
60 64 68 69 71 71 64 63 65 65 66 65 64 64 63 62 61 64 61 55 59 61 66 65 66 65 65 64 65 69 66 66 67 68 69 71 72 73 74 75 74 73 71 70 70 71 72 73 74 74 74 75 76 76 76 77 77 78 79 80 81 81 82
45 45 47 50 56 60 64 65 64 65 63 61 62 62 61 56 58 58 61 60 57 61 63 63 63 62 62 64 65 67 68 67 67 67 68 68 70 71 72 73 73 73 73 73 71 71 71 71 72 72 73 73 74 75 76 76 76 76 77 77 79 80 81
50 55 57 62 63 63 59 60 62 62 64 63 62 63 62 59 58 59 62 62 54 56 59 60 60 61 61 61 62 64 66 68 69 69 69 70 70 70 69 70 71 72 70 69 71 72 72 72 72 72 72 72 73 73 73 74 76 76 76 75 76 77 79
58 60 60 63 63 61 60 59 59 62 62 61 61 62 63 64 62 58 61 60 57 58 61 61 60 61 63 64 64 64 66 69 70 69 68 68 69 69 69 69 69 69 69 70 70 72 74 73 74 73 73 74 74 75 74 75 75 76 76 76 75 75 76
56 60 62 63 62 62 61 61 61 60 61 61 59 59 60 60 64 62 61 60 60 63 65 64 62 62 64 64 64 66 68 70 70 69 68 68 67 67 68 69 69 69 68 69 70 71 72 73 72 72 73 73 73 74 75 75 76 75 76 76 75 74 73
59 57 57 62 63 62 61 62 63 63 62 60 60 59 60 60 57 59 62 61 62 65 66 64 64 65 66 66 66 66 67 68 69 69 67 67 67 67 67 67 67 67 67 67 68 69 69 70 71 72 72 73 73 73 74 75 76 77 76 76 75 74 73
58 58 58 60 61 62 61 62 64 63 63 62 61 61 60 60 60 60 62 61 60 66 68 64 65 66 66 65 64 65 66 67 69 68 67 65 65 65 65 65 65 66 66 66 67 67 68 68 68 68 69 70 71 72 72 74 75 76 76 74 75 74 73
55 59 57 58 61 63 62 60 60 61 60 58 58 56 57 56 57 60 61 58 57 60 66 66 64 63 63 62 63 63 65 68 68 66 65 64 64 65 65 65 65 65 65 65 65 65 66 66 67 67 68 70 71 71 71 72 73 74 73 73 74 74 75
53 58 58 55 58 58 56 58 59 61 60 59 59 59 60 58 58 59 58 59 62 62 65 62 61 63 63 63 64 64 65 67 67 65 64 64 65 65 65 64 64 65 65 65 65 65 65 65 65 66 67 68 67 68 69 69 71 71 71 71 71 72 75
54 56 56 55 52 42 48 61 64 64 60 60 58 57 57 60 60 59 62 62 62 63 63 60 59 61 62 63 65 68 66 65 65 65 65 66 65 66 65 65 64 65 66 66 66 66 66 66 66 67 68 67 67 68 69 69 69 69 70 70 70 70 70
52 54 55 50 42 44 56 61 65 66 65 64 60 59 59 60 61 62 62 61 61 63 64 64 63 62 64 65 65 67 68 66 65 64 65 65 66 65 65 65 64 64 65 67 67 66 67 68 68 68 68 69 69 69 69 68 68 67 68 68 68 69 69
54 52 52 38 43 55 58 61 62 63 64 64 62 59 60 60 60 61 63 61 62 62 62 62 62 62 63 63 62 64 65 66 65 64 64 67 68 65 64 64 65 65 65 65 67 67 68 68 67 69 69 71 71 70 71 70 69 68 67 67 67 67 66
49 52 52 52 55 55 58 58 59 59 55 59 60 57 59 60 62 64 61 60 60 60 61 62 63 64 63 59 58 63 65 65 66 64 62 67 67 67 68 69 67 67 67 67 69 69 68 69 67 67 68 69 70 70 69 68 68 67 67 66 66 66 66
53 50 49 50 50 45 52 57 62 65 64 61 62 61 58 60 64 67 61 58 57 59 61 62 63 64 59 54 56 62 66 68 68 68 67 68 68 69 70 70 70 68 67 67 68 70 70 69 69 68 67 67 68 68 67 68 69 68 66 65 66 66 66
52 51 47 46 42 48 55 58 62 64 64 63 62 58 55 59 64 66 64 60 59 59 59 61 63 60 54 54 58 62 65 67 68 67 68 68 69 70 71 71 69 68 67 66 67 67 68 67 68 69 68 67 67 67 68 69 69 68 66 66 66 66 66
51 51 48 46 51 50 56 59 62 65 65 63 60 50 52 59 65 67 65 62 60 59 60 62 62 58 52 53 57 64 65 67 68 66 64 64 64 66 67 68 67 66 67 67 66 65 65 65 69 69 69 68 66 67 68 68 68 67 67 67 68 69 69
51 49 51 52 53 59 59 59 62 64 63 60 53 47 56 62 65 67 67 65 64 62 60 62 59 60 59 56 57 59 61 64 67 69 68 67 67 66 68 67 68 68 68 67 66 66 65 67 69 70 70 68 66 66 67 67 66 67 67 68 68 68 69
51 50 50 50 54 57 57 61 61 62 60 52 51 59 60 60 64 66 68 66 66 65 63 62 61 61 63 61 60 59 60 61 63 67 68 69 68 68 68 67 68 69 69 68 69 69 69 70 71 71 70 67 66 66 67 66 68 70 69 69 69 69 68
49 50 50 48 41 54 58 57 62 64 57 56 60 59 63 64 65 64 65 67 67 68 65 64 60 59 59 61 61 60 60 60 60 61 64 65 66 65 65 66 68 69 68 68 69 69 70 71 71 71 70 66 66 66 65 65 69 69 69 69 69 69 68
49 48 46 45 54 58 60 57 57 59 60 61 60 59 61 65 66 66 65 64 65 67 65 63 62 61 60 60 60 60 61 62 62 62 61 62 65 66 67 68 68 69 67 67 67 68 68 68 69 69 67 65 65 64 64 67 69 69 69 68 68 68 68
53 51 55 57 58 58 60 57 59 59 61 61 60 60 61 63 65 66 66 64 65 66 65 62 61 62 62 59 61 59 60 62 62 61 62 62 62 62 64 64 64 67 67 66 67 66 67 67 67 67 67 65 64 63 64 67 67 68 68 68 68 68 68
57 58 57 57 60 59 60 62 60 60 60 62 62 61 63 64 65 67 66 65 65 65 64 60 61 61 60 59 60 61 61 62 62 63 62 62 63 64 63 62 63 65 66 66 66 65 65 67 66 66 67 67 63 63 66 67 68 68 68 67 66 66 67
53 49 57 57 57 58 59 60 62 61 62 61 61 61 61 61 64 66 67 65 64 63 61 62 61 61 61 60 60 60 61 62 62 63 61 62 63 63 61 60 60 60 63 62 64 64 63 65 67 67 66 67 65 65 66 68 68 67 67 66 65 66 66
55 55 57 57 58 58 59 60 61 61 61 62 62 62 62 62 62 64 64 65 63 63 60 61 60 60 61 60 59 59 59 59 60 61 61 61 62 63 62 60 60 59 59 60 61 62 61 63 64 65 65 66 66 66 67 68 68 67 65 65 66 66 67
58 58 57 58 58 59 60 61 61 61 60 61 62 63 63 63 62 63 64 66 64 64 61 60 58 57 57 57 58 58 58 58 60 60 60 61 61 62 62 61 60 59 59 58 58 58 58 60 62 62 63 65 65 65 65 66 66 65 64 64 65 65 65
54 56 57 57 55 55 59 59 59 60 61 62 63 63 63 63 62 62 62 62 65 64 61 61 59 57 57 57 58 58 58 57 58 58 59 60 60 60 61 61 61 61 60 59 58 57 57 58 58 59 60 61 63 65 65 65 66 65 64 64 64 65 65
54 57 58 57 58 58 59 60 61 61 61 62 61 61 61 62 63 63 62 61 61 62 64 65 63 61 60 59 60 58 57 57 57 57 57 58 59 60 60 60 61 61 61 61 59 58 59 60 60 60 59 60 60 61 62 64 64 64 63 63 63 64 65
58 60 59 59 59 58 60 61 61 61 61 62 61 61 62 62 63 64 63 63 62 61 62 62 63 63 63 62 62 60 59 59 58 58 58 59 58 60 61 62 61 61 61 61 60 60 60 61 61 61 61 61 60 61 61 62 63 62 62 62 61 62 63
57 60 60 59 60 60 61 60 61 61 61 61 61 61 62 62 63 64 63 62 63 63 62 61 62 62 63 62 62 61 60 60 59 58 58 58 60 60 62 62 62 61 61 62 61 61 61 61 60 61 60 61 62 63 62 62 62 62 61 62 62 62 62

ECMWFFLT2_sfc_temp_108.txt.gz
Temp
81 82 85 83 85 66 77 79 70 75 85 80 71 71 75 72 69 63 73 71 77 82 81 82 83 82 82 84 87 87 86 86 85 83 83 83 82 84 85 85 89 89 91 90 90 90 92 92 93 92 91 91 90 89 90 88 89 90 89 88 89 89 88
82 85 85 86 85 85 80 70 77 85 88 84 73 64 65 63 59 62 71 67 70 70 64 76 78 80 81 82 85 87 86 86 83 84 82 80 83 83 85 83 87 89 89 90 91 92 91 91 93 92 90 92 91 91 91 90 89 88 90 90 90 90 89
80 83 83 79 85 88 80 78 89 75 64 62 71 67 59 58 57 63 67 71 71 73 70 74 75 77 78 81 83 84 84 85 84 86 83 83 83 82 80 84 86 88 88 89 89 90 90 90 91 93 92 92 93 92 93 95 92 93 93 95 93 92 92
80 80 79 67 74 83 85 84 80 85 79 72 66 68 70 70 61 61 63 67 65 78 78 78 75 75 77 79 79 82 84 84 86 86 83 83 81 78 78 80 79 83 86 86 86 87 88 88 89 91 91 92 93 92 92 92 92 92 92 94 93 92 93
79 69 75 73 77 71 74 75 74 78 76 83 79 78 71 68 64 65 64 60 67 73 75 76 75 75 76 78 79 80 83 85 87 87 87 84 83 80 81 81 82 83 83 84 83 86 88 88 89 90 90 89 90 89 90 90 88 88 90 92 94 92 93
70 75 79 78 77 80 79 75 73 77 73 69 63 62 78 75 68 60 64 61 70 72 77 77 76 75 75 76 77 77 81 84 85 86 87 87 85 84 83 84 82 80 79 80 83 85 87 87 87 87 87 87 88 87 89 89 88 88 88 90 91 90 92
71 74 77 80 82 82 82 83 78 83 80 77 69 57 66 73 73 76 72 66 63 74 77 78 75 75 76 77 78 77 78 79 81 84 86 87 85 83 83 83 81 79 77 76 79 81 83 84 85 86 86 86 86 87 87 88 87 87 88 90 90 90 90
75 77 80 81 81 81 78 79 79 78 76 78 75 73 75 70 71 68 67 60 67 74 74 74 74 73 74 75 77 77 77 77 79 81 81 82 82 82 82 83 82 79 76 75 74 73 77 80 82 84 84 85 86 86 86 87 86 87 88 88 89 88 87
65 69 73 75 80 80 76 73 75 76 77 77 78 76 75 67 71 72 67 59 66 70 74 74 74 71 70 73 76 79 76 76 78 79 80 81 81 81 81 81 80 78 77 74 73 73 72 73 77 78 78 81 83 84 86 86 87 87 87 88 87 87 87
48 49 52 57 61 70 74 74 73 74 74 72 72 66 69 60 68 71 67 67 66 71 72 72 73 71 69 71 74 77 78 75 73 75 77 78 79 80 79 80 80 78 77 75 73 73 73 74 75 75 75 78 79 79 82 84 85 85 86 87 87 88 87
56 58 61 68 71 72 66 68 70 71 74 76 74 73 67 65 69 65 68 72 68 68 69 70 72 70 69 68 69 73 73 74 74 74 75 76 76 77 78 79 79 79 78 77 75 73 73 73 74 74 74 75 75 76 78 81 83 84 84 84 84 85 86
67 68 67 71 72 68 69 69 69 72 71 72 71 69 66 68 67 62 72 73 69 70 72 72 71 69 70 70 71 73 73 72 72 71 71 72 74 74 73 72 74 75 77 78 76 75 74 72 73 73 74 74 75 75 76 78 79 79 79 80 81 82 83
70 72 72 72 71 70 70 71 71 69 71 70 68 69 69 69 66 64 66 69 72 76 77 76 72 69 71 71 73 76 76 74 72 71 72 72 73 73 73 72 74 76 75 75 77 76 76 76 75 74 73 74 74 74 75 76 77 78 80 79 78 77 78
68 67 68 71 71 70 70 70 71 72 71 69 69 69 70 70 67 69 72 69 69 76 77 77 73 71 71 71 73 75 75 73 73 73 73 73 73 72 71 71 71 72 73 74 75 76 75 75 74 75 75 75 75 75 75 76 76 77 78 79 78 77 76
65 69 68 66 69 70 67 70 72 71 71 71 70 69 69 70 72 72 71 69 69 77 78 76 73 72 72 73 74 73 73 74 73 72 71 71 70 69 70 70 71 72 73 73 73 73 74 75 76 76 75 75 75 76 77 78 77 76 76 76 76 76 75
62 68 68 66 65 67 68 68 69 69 68 66 67 66 67 67 65 68 70 66 68 72 76 73 71 70 70 69 69 69 71 72 71 70 70 69 69 68 68 68 69 69 70 70 71 71 71 71 71 73 73 74 75 75 77 78 78 77 75 75 75 76 77
59 67 68 66 63 62 60 64 69 69 69 70 70 70 70 69 68 68 67 66 72 73 72 69 67 69 70 71 69 69 70 70 70 70 69 69 68 67 67 67 68 68 69 69 70 71 71 72 70 69 70 69 68 72 74 76 78 77 76 75 76 77 78
58 64 66 66 60 49 52 67 72 71 69 69 68 67 68 70 72 70 71 71 72 73 72 70 66 67 68 69 69 72 70 68 69 71 71 70 68 68 68 69 69 69 69 69 68 68 68 69 69 69 69 68 69 72 72 73 73 74 74 74 74 75 77
58 63 62 57 49 53 63 67 70 73 72 72 69 69 70 71 71 71 72 70 69 71 72 71 68 67 69 69 68 69 71 70 69 69 70 70 69 68 67 67 68 69 69 68 67 69 71 70 70 70 69 70 70 71 71 71 72 72 73 73 73 74 74
64 59 57 43 49 62 66 66 68 71 73 72 71 63 68 70 71 70 70 70 70 70 70 69 68 68 69 69 68 69 71 72 70 70 70 71 71 70 70 68 67 69 71 70 70 69 72 75 73 75 73 73 71 69 70 69 70 70 71 71 71 71 71
54 59 57 55 61 61 64 64 64 66 62 64 62 57 66 69 72 71 69 68 70 70 70 72 72 71 70 63 62 68 68 67 69 71 71 72 71 72 72 73 71 70 71 73 74 75 74 76 75 75 76 74 72 70 70 69 68 69 70 69 70 71 72
63 56 54 54 53 49 57 62 69 71 70 68 68 64 62 68 72 74 70 67 67 67 70 72 72 71 65 57 58 63 65 67 67 70 70 70 71 72 73 73 73 72 72 74 76 77 76 76 76 75 75 75 75 73 74 73 71 71 71 69 70 70 71
61 58 53 50 47 52 61 64 68 72 73 71 70 63 60 67 71 72 72 69 68 68 67 69 70 66 61 59 60 65 65 64 66 65 66 70 72 72 72 72 71 71 70 71 73 75 76 75 75 75 75 75 75 75 75 76 76 73 71 71 71 70 70
60 59 55 53 57 54 61 66 70 73 75 72 67 53 55 63 71 73 72 69 68 66 65 68 66 62 59 59 61 69 66 66 66 66 67 68 72 72 73 72 71 69 70 71 72 73 73 73 76 76 76 75 73 73 75 76 75 73 72 72 74 74 73
59 55 58 60 56 63 65 67 71 74 72 67 56 49 57 67 69 72 73 71 71 69 64 63 59 59 60 59 60 63 64 62 62 66 71 72 73 72 72 71 71 71 72 72 71 71 71 72 76 76 76 73 71 72 73 73 72 73 72 73 73 73 74
59 61 57 58 58 60 65 70 71 72 66 54 52 62 68 68 69 72 73 71 71 70 68 68 67 67 69 67 65 63 63 62 62 65 66 68 70 72 72 71 71 71 71 70 71 72 73 74 75 75 73 69 69 70 72 72 74 76 74 73 74 74 73
61 59 57 54 44 57 68 66 69 71 60 58 66 66 69 72 71 71 72 71 71 72 70 72 69 67 67 68 67 67 67 67 65 64 64 64 66 67 68 70 72 72 71 71 72 72 74 75 75 75 73 69 69 69 69 70 74 74 74 74 73 73 72
56 57 53 49 59 65 68 67 61 64 65 67 67 66 67 71 73 72 73 72 72 71 69 71 70 69 67 66 67 67 68 69 69 70 68 65 63 68 72 72 72 73 71 72 72 73 73 72 72 72 71 68 68 67 67 71 73 74 74 74 74 73 73
60 56 59 64 67 68 69 67 67 67 69 70 69 68 68 69 72 73 72 71 73 73 71 70 69 67 68 67 69 66 64 67 68 68 69 68 67 63 63 66 69 72 73 71 72 71 71 71 71 70 71 69 68 66 69 72 72 72 73 74 74 74 74
66 67 66 68 69 68 69 71 69 68 69 72 72 70 69 71 71 73 73 73 73 71 69 69 65 64 66 67 69 69 68 67 68 68 68 68 68 67 66 65 67 68 69 72 71 70 70 71 71 70 71 71 67 68 71 72 73 73 72 72 71 72 73
60 53 65 65 65 67 68 69 70 70 71 70 71 70 69 70 71 73 73 73 72 72 69 66 62 62 64 64 66 68 68 68 67 68 67 68 69 68 66 64 64 65 67 67 67 68 67 70 73 73 72 72 71 71 71 74 73 71 72 71 70 71 72
61 60 64 65 67 67 68 70 70 68 69 70 71 71 71 71 71 73 73 73 71 71 67 65 62 64 64 62 63 63 64 66 67 67 67 68 69 69 68 66 68 67 65 63 63 63 64 66 69 71 72 72 72 72 74 74 74 71 70 71 72 71 73
66 66 66 66 66 67 67 68 68 69 69 70 70 71 72 71 70 71 72 74 72 71 68 67 66 66 65 64 62 61 60 59 60 63 65 66 67 67 66 66 67 67 67 67 66 65 63 63 65 66 68 70 71 70 71 72 71 70 70 69 69 70 71
61 59 62 65 60 61 65 66 67 67 70 70 69 70 70 70 69 69 70 72 73 72 70 69 68 67 65 64 63 61 60 60 60 60 62 64 65 66 67 67 67 66 66 65 65 64 63 64 64 63 64 66 68 70 71 71 71 69 69 69 70 70 71
59 62 65 66 66 64 65 67 68 69 70 70 67 67 68 69 70 70 69 69 70 70 70 71 70 69 67 66 66 64 62 61 60 60 59 57 58 59 64 66 66 65 65 65 65 64 65 64 62 62 62 63 64 66 68 68 69 68 68 68 69 71 70
64 67 66 67 66 65 65 67 68 69 69 70 68 69 69 69 69 70 69 69 68 69 70 71 71 70 68 68 68 66 65 64 63 61 60 58 57 59 60 63 64 65 65 65 65 64 65 65 64 63 62 62 62 64 65 66 67 67 67 67 67 69 69
63 66 67 67 67 67 69 69 69 69 69 69 68 67 68 68 69 70 69 68 70 70 69 69 70 71 70 70 69 68 65 65 65 62 59 59 60 58 59 61 63 64 66 67 67 66 66 65 65 65 64 64 64 64 64 65 65 64 64 65 66 67 68

ECMWFFLT2_sfc_temp_111.txt.gz
Temp
86 85 88 87 89 70 81 82 73 78 89 84 74 75 78 77 70 66 78 75 79 77 81 80 80 78 86 84 84 86 84 87 83 82 82 82 82 81 80 80 86 88 91 92 93 93 94 94 95 94 92 94 93 92 92 90 90 91 91 89 90 90 90
85 90 90 89 90 88 85 74 81 89 92 88 77 66 70 68 63 66 75 71 74 73 59 77 80 80 76 85 86 83 81 79 85 83 81 83 82 82 81 80 80 85 87 89 92 95 94 93 95 94 92 95 94 94 93 92 91 89 92 91 92 92 90
85 89 89 85 89 92 83 82 95 78 69 67 74 71 60 61 62 64 69 74 76 75 69 76 74 80 75 76 82 85 86 77 81 83 82 81 82 82 81 81 81 83 86 88 90 92 93 92 92 94 95 95 96 95 95 96 93 95 95 96 94 92 92
85 85 82 70 78 87 90 90 86 90 82 75 69 71 72 72 63 66 66 71 68 80 71 78 74 75 76 83 85 82 84 84 76 81 82 82 80 80 80 81 82 84 86 88 90 91 91 91 92 94 93 95 96 94 95 94 93 93 95 96 94 93 94
83 71 78 76 79 76 78 78 77 82 80 88 83 80 73 69 65 65 66 63 68 68 77 81 80 81 82 81 83 73 77 79 83 81 82 80 80 81 82 82 82 83 85 89 90 90 91 92 93 93 93 91 91 90 91 92 91 92 93 95 96 93 94
75 77 84 84 84 84 81 79 76 81 77 72 66 65 81 77 70 62 65 63 66 74 78 79 79 82 81 83 80 83 72 76 78 82 82 80 79 80 82 83 84 85 84 86 87 87 89 90 91 91 90 84 84 87 87 88 91 91 92 93 93 92 93
74 76 84 90 91 85 86 85 80 84 83 81 72 59 69 77 77 79 75 69 62 78 81 80 81 82 84 84 85 84 80 71 78 82 82 83 79 81 80 81 83 84 84 84 85 85 86 86 87 88 89 89 90 90 90 91 90 90 93 94 93 93 93
78 81 85 85 87 86 83 86 86 83 78 81 78 76 78 74 75 70 72 67 65 78 79 80 79 81 81 83 83 82 82 77 76 81 82 80 80 79 80 80 83 82 83 85 84 84 83 84 84 86 86 87 88 88 88 89 89 90 92 92 91 90 91
67 72 77 79 85 84 80 81 85 87 86 85 85 83 81 71 76 77 71 62 64 73 80 81 81 79 81 81 84 84 80 81 78 78 80 80 78 77 75 79 80 80 81 80 80 80 80 81 82 82 83 85 86 87 88 88 88 89 89 91 90 90 91
50 51 53 59 66 74 80 82 84 84 82 79 75 71 74 62 69 73 70 71 64 72 76 78 79 79 79 81 84 85 83 80 81 79 79 79 80 77 75 76 76 77 79 79 78 76 78 79 80 79 80 83 84 85 86 88 87 88 88 89 89 91 89
58 60 60 70 74 76 74 77 77 76 80 82 80 76 70 65 72 70 71 71 67 69 72 73 75 76 76 76 78 82 80 80 79 77 79 79 76 76 73 72 72 74 77 78 77 75 77 78 78 76 76 79 81 82 84 86 87 87 87 87 88 88 88
68 72 68 75 76 71 72 71 73 76 76 78 75 70 67 71 67 64 73 72 71 72 74 73 72 75 76 77 78 79 79 79 79 77 76 78 79 77 74 73 73 73 76 78 78 77 78 77 78 75 74 74 76 79 82 84 86 86 86 86 86 86 86
73 75 74 76 76 75 73 73 72 73 76 76 72 72 75 75 68 66 69 70 71 76 77 77 77 77 76 79 81 80 80 78 77 77 78 77 77 76 77 75 72 71 75 78 78 79 80 79 77 77 75 74 74 75 77 79 81 84 85 85 84 84 85
72 74 75 76 74 75 74 74 74 74 75 75 75 75 77 76 70 71 74 71 70 68 73 78 78 79 80 80 80 78 78 77 76 76 76 77 77 75 75 75 76 77 78 77 79 79 80 80 79 79 77 75 75 74 74 76 77 78 81 82 83 83 83
69 73 75 75 73 71 70 74 75 76 75 76 75 74 75 74 73 76 75 71 67 74 75 74 79 79 80 79 79 77 76 77 76 76 74 74 73 72 73 73 75 76 77 79 79 78 78 79 80 80 79 78 77 76 76 76 76 77 77 78 80 81 81
64 71 72 73 74 73 71 71 72 74 73 71 73 71 73 70 69 72 74 71 65 65 75 76 76 76 76 76 77 77 77 78 75 74 73 73 73 72 72 73 74 75 75 75 74 74 76 79 78 78 79 80 80 78 78 77 77 77 77 77 77 79 80
61 71 72 72 71 69 64 67 72 73 73 73 76 77 76 75 74 70 66 66 68 69 75 71 73 75 75 76 77 76 75 76 75 74 74 75 75 74 73 74 74 75 75 75 76 76 76 75 74 76 78 78 78 78 78 78 79 78 77 76 77 77 78
61 67 70 70 64 53 56 69 79 76 68 68 71 70 73 76 77 70 71 70 71 69 69 68 73 73 73 74 75 76 73 74 74 75 75 76 76 75 74 74 73 73 73 73 73 73 73 74 76 76 77 76 77 78 78 78 78 77 76 76 76 77 78
60 67 65 58 51 54 64 75 76 74 77 76 74 73 76 75 75 73 69 69 74 71 75 72 72 73 76 76 73 73 74 74 74 73 73 73 73 73 72 71 71 70 70 71 72 73 74 74 75 76 76 76 76 76 76 75 76 76 76 76 76 77 76
66 62 60 46 49 61 70 73 76 78 78 78 74 72 72 73 73 71 67 69 76 74 75 75 75 74 74 76 75 72 73 75 74 74 73 73 74 72 73 72 72 73 73 72 72 73 76 77 76 77 76 77 76 75 77 76 76 75 75 73 73 73 72
57 59 59 56 65 65 68 69 69 73 67 69 65 59 64 71 72 72 69 70 75 76 75 75 75 75 75 72 69 72 71 74 76 75 74 74 73 73 74 76 76 76 76 75 76 76 77 78 75 76 76 76 75 74 74 73 72 72 72 72 73 73 73
67 60 56 59 58 51 53 64 73 78 77 75 73 70 63 68 73 72 68 64 72 73 74 75 74 74 69 63 63 68 70 72 71 74 75 76 76 76 75 76 78 79 79 80 82 83 80 78 78 77 77 76 76 74 74 74 74 72 71 71 72 72 73
65 61 55 53 48 52 58 61 71 77 80 78 77 68 57 67 74 73 70 70 70 72 66 68 74 68 61 61 62 65 65 66 71 72 74 74 76 77 77 76 74 73 75 78 81 81 80 79 78 80 80 80 79 77 78 79 77 75 72 72 72 73 74
62 61 57 53 55 56 63 68 71 77 80 78 72 56 57 64 74 75 75 73 71 71 72 73 70 63 58 58 59 63 63 64 66 68 71 71 71 73 75 77 76 75 75 74 75 77 79 79 82 81 81 79 78 79 80 79 77 75 74 72 74 76 77
62 58 61 62 58 64 67 69 74 78 78 73 58 50 57 69 71 74 75 76 74 72 70 69 64 62 61 61 62 64 64 63 64 68 70 71 71 70 72 73 74 74 74 73 73 74 73 76 80 80 80 77 75 75 76 75 74 75 75 75 74 74 75
63 64 58 58 56 64 69 73 76 76 69 57 54 64 71 70 71 75 77 75 75 75 72 68 62 64 67 68 67 67 67 64 63 64 66 70 73 74 71 70 71 73 74 74 75 75 74 75 77 77 76 73 73 73 73 73 75 77 77 76 76 75 75
66 64 58 49 44 61 73 70 72 72 59 56 67 70 73 75 72 73 70 73 76 75 71 66 65 67 69 69 69 69 68 67 65 65 65 64 64 67 71 72 74 73 71 71 71 72 75 75 75 75 75 71 71 71 71 71 75 75 76 76 75 74 74
58 57 52 49 62 67 72 72 62 66 68 72 72 71 70 74 72 70 72 65 72 75 63 63 66 65 67 67 67 67 68 69 69 68 66 64 62 63 65 66 70 74 72 72 72 74 73 72 72 73 71 69 70 70 69 72 74 75 75 75 75 74 74
63 59 63 67 70 72 74 72 71 72 74 76 75 74 73 70 72 72 65 67 74 68 66 67 68 69 71 70 71 69 68 69 70 69 67 67 66 63 61 61 64 65 67 69 73 72 73 72 72 71 71 69 69 69 72 74 73 73 74 75 75 75 75
71 73 72 73 73 73 73 75 74 74 74 78 77 75 73 73 74 75 73 69 67 68 69 67 69 69 68 70 69 70 72 72 71 70 70 69 68 68 67 64 63 63 63 64 68 70 71 73 72 71 71 71 68 69 73 74 75 74 74 73 73 73 74
63 55 70 70 69 72 73 73 74 75 76 75 76 74 74 74 75 76 76 74 74 68 68 67 64 64 65 63 65 70 70 70 71 72 71 70 69 68 67 67 67 66 64 61 61 64 65 69 71 72 72 72 72 72 72 73 74 73 74 74 73 73 74
63 59 68 71 73 72 74 75 73 72 73 74 75 76 75 75 75 76 75 76 74 72 68 69 68 68 69 67 65 65 66 68 70 70 70 70 70 70 70 69 69 68 67 64 63 62 61 64 67 70 71 71 72 71 73 72 71 71 71 72 74 73 75
70 69 70 71 72 71 71 71 73 73 73 73 73 75 76 76 75 75 76 76 74 74 70 69 69 68 69 70 69 68 67 68 69 69 69 70 70 70 70 70 69 68 67 66 64 62 61 63 63 64 67 70 72 71 71 71 71 71 70 71 72 73 74
62 58 59 68 62 61 65 69 70 72 73 73 73 73 74 74 73 73 73 75 76 75 73 73 72 70 69 70 70 68 67 67 68 68 68 69 69 70 71 71 71 69 68 68 66 65 64 64 63 62 63 65 67 70 71 71 71 70 70 72 73 74 74
60 63 63 68 68 68 67 69 72 73 74 73 70 70 71 73 74 74 72 71 73 73 73 74 73 71 68 68 70 69 68 67 68 66 64 64 66 67 69 69 69 68 68 68 67 66 66 66 65 64 64 65 65 66 68 69 70 69 70 71 72 74 73
69 70 69 70 69 67 68 71 72 72 73 73 71 71 72 72 73 74 73 72 71 71 72 73 73 73 72 72 72 69 69 69 67 66 65 64 63 61 62 65 67 67 66 67 67 66 66 66 66 65 66 66 65 68 67 67 67 68 69 70 70 71 72
67 70 71 71 71 71 73 73 73 73 72 73 71 71 71 72 72 73 72 72 73 73 71 71 73 74 73 72 73 71 70 69 68 67 65 65 65 61 61 62 63 64 64 65 65 65 65 65 65 66 66 66 68 69 67 67 66 65 65 66 68 69 70

ECMWFFLT2_sfc_temp_114.txt.gz
Temp
86 85 88 87 88 68 81 80 71 75 87 82 72 72 75 74 69 64 77 67 70 76 79 80 80 80 81 82 82 81 80 81 79 79 81 83 83 83 83 82 88 89 92 90 91 91 92 92 93 92 90 91 89 88 88 86 86 88 87 87 87 87 87
87 90 89 89 89 88 82 74 79 88 90 86 75 64 68 67 61 65 76 65 64 66 60 76 77 77 79 79 80 80 79 82 80 81 81 83 83 83 83 82 82 89 90 90 91 92 92 92 94 93 90 92 90 90 89 88 87 86 88 89 89 88 87
87 92 88 84 88 91 82 81 92 77 67 65 73 69 59 61 60 64 70 74 65 70 65 73 74 76 77 79 81 79 77 79 80 80 80 81 84 83 81 81 80 83 87 88 88 90 91 90 90 93 93 93 93 91 91 92 89 90 90 91 90 89 89
85 84 81 68 76 86 89 91 83 88 82 73 67 70 70 68 61 63 65 71 61 71 72 76 75 77 77 77 77 78 78 77 80 80 81 81 81 81 81 81 81 81 83 87 89 89 88 89 90 91 91 93 93 91 91 91 89 89 90 91 90 89 90
82 71 78 74 78 75 77 77 77 81 80 87 82 79 72 67 63 62 62 59 59 68 72 77 76 78 77 74 74 73 74 76 80 82 82 80 80 81 82 80 80 81 81 83 87 88 88 90 91 91 91 90 90 89 90 89 86 87 89 91 91 90 91
71 76 84 83 83 84 80 78 75 79 77 71 66 64 81 76 68 57 62 55 61 69 78 74 75 73 70 72 75 73 75 74 75 79 83 82 80 81 82 83 82 82 82 83 83 85 87 87 89 89 87 85 84 87 88 88 87 88 89 91 89 88 90
69 74 78 85 87 89 87 84 79 82 81 79 71 58 68 76 75 77 72 66 57 71 71 76 74 73 75 74 75 74 74 74 76 77 80 84 82 82 83 83 83 82 83 83 82 83 85 85 86 86 85 83 85 86 88 88 89 88 91 92 90 90 90
76 79 83 85 87 86 82 84 85 82 77 80 78 75 76 71 73 69 69 63 60 70 68 68 75 71 74 74 75 74 74 75 77 79 76 79 80 81 80 79 80 82 83 84 82 82 83 84 84 83 82 81 82 82 83 87 87 89 90 90 90 88 88
63 68 74 77 83 85 81 80 83 86 85 84 84 83 81 70 74 76 69 59 57 66 71 72 68 68 69 72 74 75 72 75 79 81 79 79 79 79 77 76 77 78 80 80 81 82 82 81 79 79 78 80 80 80 81 81 84 86 88 88 88 89 90
43 45 50 54 63 70 79 81 81 83 81 80 76 69 71 62 69 70 68 59 65 69 70 68 70 68 66 70 71 71 73 75 78 80 78 78 78 75 73 72 71 71 74 76 76 77 80 80 78 78 78 78 78 76 78 80 80 81 81 87 88 90 88
57 57 61 69 72 73 69 76 79 80 83 81 76 75 69 60 65 69 62 66 65 67 71 71 69 70 66 63 65 69 69 71 73 77 75 76 74 74 75 73 73 73 73 72 73 75 79 80 81 81 81 80 78 77 77 78 79 80 80 84 86 86 85
68 71 68 73 72 69 73 72 71 75 75 77 75 70 67 72 68 63 64 66 64 64 70 71 73 72 73 67 67 67 67 68 69 67 71 73 75 76 74 73 73 73 73 74 73 74 77 78 80 80 81 82 81 79 78 78 78 78 81 84 86 85 84
73 74 74 75 73 74 74 74 74 72 74 75 72 72 76 74 66 63 70 70 65 69 72 75 76 75 75 73 69 69 68 69 68 68 69 72 73 72 74 73 72 72 72 73 73 74 76 77 77 77 78 79 79 79 80 80 79 80 84 85 85 84 84
72 74 75 76 72 72 73 74 75 75 75 74 74 74 77 76 71 73 74 72 66 69 73 76 76 78 78 76 75 74 74 68 68 67 67 67 69 70 71 72 72 71 72 72 74 74 75 75 74 74 76 77 78 78 78 79 80 82 84 83 82 83 84
67 72 74 75 73 71 68 72 73 74 75 75 75 75 74 71 72 75 75 72 64 71 75 76 78 78 78 77 73 72 76 73 68 68 66 67 68 67 66 68 70 71 71 71 73 74 74 73 73 72 73 76 78 78 78 78 79 80 80 80 82 82 82
63 70 71 72 73 72 69 68 71 72 73 70 73 68 68 67 65 68 69 67 60 67 73 76 78 76 76 73 73 71 70 72 69 66 66 66 66 67 67 67 69 70 70 70 70 72 73 75 75 75 75 77 78 77 78 78 79 79 79 78 79 80 81
60 69 72 70 70 67 63 65 67 68 69 74 76 71 68 65 68 65 63 61 69 69 74 72 73 71 64 65 65 66 68 69 74 68 67 68 70 70 68 67 67 68 68 68 68 68 69 70 70 72 76 77 77 78 78 79 79 78 78 77 77 77 79
60 67 69 70 63 51 53 64 73 73 66 69 68 66 67 67 66 68 62 65 67 70 69 66 67 66 63 64 65 70 66 66 68 70 69 69 69 70 70 68 68 67 67 67 68 69 70 71 71 71 72 72 74 76 78 78 78 77 77 77 76 76 78
59 66 65 58 51 52 65 74 76 77 74 72 70 68 70 69 70 69 69 68 68 68 69 69 68 67 69 70 68 69 72 72 73 72 70 69 70 70 69 69 69 69 70 70 69 69 71 70 71 71 71 73 73 75 75 74 74 72 71 71 72 73 74
65 62 60 47 50 62 70 75 76 77 78 76 74 67 67 69 70 69 67 67 70 68 68 68 66 69 67 69 67 67 70 72 70 71 70 70 70 70 70 70 70 70 71 71 72 72 72 73 73 75 74 75 74 73 73 72 72 72 71 71 71 71 71
52 53 59 59 65 65 68 67 68 72 67 69 65 60 61 67 70 71 68 69 71 68 65 64 65 65 68 65 64 67 68 69 70 70 72 73 73 75 74 75 73 74 74 74 74 74 74 76 74 74 75 75 74 72 72 71 71 71 71 70 71 71 71
63 57 50 56 56 51 52 65 73 78 79 77 75 70 57 70 73 74 70 66 67 68 65 63 62 63 59 57 59 65 68 69 69 71 72 74 74 73 73 74 74 74 75 76 76 75 74 74 75 75 75 74 73 72 71 71 71 70 70 70 71 71 72
60 58 52 50 48 51 58 64 70 76 80 78 78 67 56 65 72 74 73 71 67 67 67 66 65 58 53 54 56 62 65 69 71 71 73 74 74 74 74 73 73 73 73 75 78 78 78 77 78 77 75 75 76 74 73 74 73 71 70 70 70 71 72
63 58 52 50 51 51 60 68 72 77 78 78 70 53 52 63 71 74 73 69 63 65 65 67 64 58 53 53 56 63 63 65 67 71 71 71 73 74 75 75 75 74 74 74 73 73 74 75 78 77 78 77 75 74 75 75 73 71 71 70 72 72 73
61 58 59 52 54 62 67 69 73 75 76 70 57 45 55 68 70 73 72 67 65 63 62 63 59 59 60 60 62 64 65 65 65 68 70 71 73 72 73 74 74 73 73 73 73 73 73 75 76 74 74 74 72 73 74 73 72 73 73 73 72 71 73
60 62 58 54 56 63 69 73 74 73 68 55 50 61 70 71 71 72 71 67 68 66 62 62 61 61 63 63 65 66 66 66 68 69 71 71 71 73 74 72 72 73 74 72 72 73 73 74 76 76 74 71 70 70 71 72 73 75 74 73 74 74 72
63 59 56 50 42 60 72 70 71 71 60 59 67 70 72 75 72 72 69 68 68 69 63 64 65 66 66 66 66 67 68 67 66 66 65 65 65 66 68 70 74 73 71 70 71 71 72 73 73 73 73 70 70 70 69 71 75 74 74 74 73 73 72
54 52 48 46 59 67 73 70 60 65 67 72 72 72 69 74 73 70 67 66 68 69 67 63 63 66 67 67 67 66 68 68 67 67 66 65 65 65 66 67 67 69 68 70 71 72 72 71 71 71 70 68 69 69 69 72 74 75 75 74 73 73 73
61 57 60 66 70 71 73 72 70 72 75 76 74 74 72 71 72 74 68 65 67 69 68 67 67 64 66 67 69 68 68 68 68 68 68 68 67 66 65 65 65 64 65 65 66 66 69 71 71 70 70 68 68 68 69 72 71 72 73 74 74 74 73
71 71 71 73 72 72 72 75 75 74 74 77 76 73 72 73 73 73 69 69 69 68 69 67 67 66 65 66 66 69 70 69 69 69 69 69 69 70 69 67 66 65 63 63 65 65 66 69 70 70 71 69 65 66 69 70 71 70 72 73 73 73 74
60 52 67 69 70 73 73 73 75 75 76 74 75 73 72 73 74 73 73 71 69 70 70 68 65 65 66 64 63 64 68 68 69 69 68 68 69 69 68 67 67 67 65 63 61 62 62 64 67 69 69 70 68 67 69 72 72 71 70 71 71 72 73
62 58 65 70 73 72 74 72 71 70 72 73 75 75 74 74 74 74 71 72 71 72 69 69 67 67 67 65 63 64 67 68 69 69 68 68 68 69 69 68 69 68 67 65 63 62 60 62 63 64 65 65 66 67 67 69 70 70 70 71 72 72 73
63 65 66 67 71 70 70 71 72 73 73 72 72 74 74 75 74 74 75 73 71 72 70 70 69 68 68 67 67 67 68 68 68 68 69 69 69 68 68 69 69 68 67 66 64 63 62 62 62 62 62 63 64 65 67 67 66 66 67 70 71 72 73
56 58 61 65 60 57 59 68 69 72 73 73 72 73 73 73 72 72 73 73 71 72 72 71 71 69 69 69 68 68 68 69 69 69 69 69 69 69 71 70 70 69 68 66 65 64 64 64 63 62 62 62 63 64 65 65 66 65 67 70 72 69 69
56 62 65 67 66 64 65 68 71 73 74 73 70 70 70 73 74 73 72 71 71 67 69 74 70 69 69 69 70 68 68 68 69 70 69 69 69 69 70 70 69 68 67 67 66 65 65 65 64 63 63 64 64 65 64 65 64 64 65 65 69 71 68
68 70 67 69 69 66 68 72 72 73 74 73 71 71 72 72 73 73 72 72 71 71 73 73 72 71 70 71 71 68 66 67 69 69 70 71 69 68 68 69 67 67 66 66 65 64 65 65 65 65 65 65 65 67 66 66 65 63 63 63 64 67 70
64 70 71 72 71 71 73 73 73 73 72 73 71 71 71 71 72 73 71 71 72 73 72 72 69 70 71 69 70 70 67 66 68 68 68 68 68 68 67 67 67 67 67 67 66 65 65 65 65 66 65 66 67 67 66 66 66 64 63 64 64 65 66

ECMWFFLT2_sfc_temp_117.txt.gz
Temp
78 78 81 80 81 56 67 74 62 66 75 71 61 63 69 67 60 53 62 60 61 67 70 74 75 75 75 77 76 75 74 75 75 74 75 77 76 75 77 77 81 83 84 84 84 85 85 86 87 86 83 84 83 82 82 81 81 82 82 81 81 82 81
80 82 81 81 82 81 74 65 68 79 80 76 65 53 55 55 51 55 63 56 55 55 50 66 72 72 73 75 75 75 74 76 75 75 76 77 77 77 78 79 77 80 84 84 84 86 86 86 87 84 84 85 84 84 83 82 82 81 82 82 83 82 81
79 84 81 77 81 84 73 70 83 67 55 53 61 58 48 48 48 50 56 60 58 59 56 65 67 70 71 73 75 75 74 75 75 76 77 78 79 79 78 78 78 77 82 84 83 85 85 85 85 84 85 85 85 85 85 85 83 84 84 85 84 84 83
75 78 71 57 65 77 81 80 74 79 68 61 56 59 58 58 46 51 46 51 47 59 61 67 68 69 71 72 73 74 74 75 76 76 77 78 78 78 78 78 77 76 79 83 83 84 83 84 83 84 85 85 85 85 84 84 84 84 85 85 84 83 85
75 62 66 63 64 62 65 67 65 69 69 74 70 66 61 54 50 49 49 44 51 57 66 66 69 70 71 72 71 72 74 75 77 77 78 78 79 79 79 78 77 76 77 82 83 84 83 85 83 84 84 84 84 84 84 84 82 82 83 85 85 84 85
62 66 75 75 73 73 69 65 63 65 62 59 54 50 71 65 57 46 52 45 55 62 68 66 66 68 70 71 72 72 74 75 76 78 79 79 78 80 80 78 77 76 75 77 81 82 83 84 82 83 83 83 83 82 83 83 83 82 83 84 83 83 85
63 70 76 79 79 78 75 73 70 74 68 67 54 45 51 65 64 69 58 50 50 64 66 66 65 67 69 70 71 70 72 72 72 73 78 79 78 78 79 78 74 71 72 71 71 75 81 81 82 82 82 82 82 83 83 82 82 82 84 84 84 84 84
69 72 75 77 79 78 73 74 77 73 67 69 64 59 62 59 62 56 56 48 50 64 66 64 65 65 67 69 70 70 70 70 72 74 71 71 72 71 70 72 72 71 72 72 72 71 76 78 78 80 80 80 81 82 82 82 83 83 84 83 84 83 82
52 58 64 67 72 72 65 64 68 74 75 76 75 72 66 58 60 62 51 42 48 60 65 65 66 66 67 68 70 71 69 70 72 70 68 70 70 70 71 71 71 72 73 73 72 73 75 76 77 77 78 78 79 80 81 81 82 83 84 82 83 83 83
39 38 40 44 51 58 65 69 73 74 72 70 66 57 58 45 55 58 53 49 55 60 63 63 64 64 64 66 68 70 70 69 68 68 69 70 71 69 69 69 69 70 72 73 73 74 75 76 76 76 77 78 77 77 78 79 80 80 81 81 83 84 83
46 47 51 62 65 64 59 67 70 72 74 74 71 62 56 49 55 52 54 56 55 57 60 60 62 61 62 63 64 66 66 68 68 68 68 68 68 68 69 69 69 69 70 72 73 74 75 76 76 76 76 76 76 76 76 77 77 78 76 78 80 82 82
60 64 60 67 68 64 67 66 68 72 72 71 69 60 56 61 50 44 55 59 57 56 59 60 60 61 62 64 64 66 66 65 66 67 67 69 69 68 68 68 68 69 69 70 73 74 75 76 76 75 75 74 74 74 75 75 75 75 76 76 77 79 79
67 70 69 70 69 68 67 68 69 69 71 69 66 62 64 63 54 47 54 58 58 60 61 63 63 63 63 65 65 67 67 67 66 65 65 67 68 68 67 67 66 67 68 69 70 73 74 74 73 73 73 73 73 73 73 74 74 74 75 75 74 76 77
66 67 69 72 66 67 68 68 69 70 70 67 68 63 66 63 58 60 59 59 57 57 61 63 65 67 66 65 66 67 66 66 65 65 64 64 66 67 67 66 67 67 67 68 69 70 69 70 71 72 73 74 75 74 73 73 74 74 74 74 74 73 73
61 66 69 70 69 68 63 67 68 68 69 66 65 64 63 64 61 63 60 56 55 61 62 62 64 64 66 65 64 64 64 66 66 64 63 64 64 64 65 66 68 67 66 67 68 68 69 69 69 69 70 72 73 74 73 73 73 74 74 73 74 73 73
54 65 66 68 69 70 66 64 63 65 65 59 62 58 62 60 56 58 58 52 52 59 64 62 62 63 62 60 62 62 63 65 64 64 65 64 64 65 65 65 67 66 66 66 67 68 68 69 69 70 71 72 71 71 72 72 72 73 73 72 72 73 74
50 63 67 66 67 63 57 55 60 65 65 66 66 65 65 62 62 55 50 51 57 58 63 61 60 61 61 61 62 62 63 64 64 64 64 65 64 64 64 65 65 65 66 66 67 67 68 68 68 69 69 69 69 71 72 72 73 73 73 73 72 73 74
49 62 64 64 53 43 46 59 69 68 62 64 59 58 62 64 64 56 58 57 59 60 60 60 59 59 58 60 61 63 63 63 63 64 64 64 64 65 65 66 66 66 66 66 67 67 67 68 69 69 70 69 69 70 70 71 71 72 72 73 73 73 73
48 55 58 49 42 45 57 66 69 72 70 65 63 62 64 64 66 66 64 62 59 59 61 61 61 61 62 62 61 62 63 65 65 65 64 64 64 64 65 65 66 66 67 67 67 68 68 69 69 69 69 70 70 69 69 69 70 69 69 70 70 70 70
56 50 46 39 38 55 64 65 70 72 73 71 66 59 62 64 65 63 62 62 62 61 59 59 61 62 63 62 63 62 63 64 63 64 63 64 65 65 65 65 65 66 66 67 67 68 70 69 69 70 69 70 69 68 69 69 68 69 69 69 69 70 70
47 47 45 46 53 56 59 60 62 65 61 63 59 50 55 61 66 64 61 62 61 60 60 60 61 61 62 58 58 63 63 64 65 64 63 64 62 63 64 67 67 68 69 69 70 70 69 69 68 68 69 69 68 68 67 68 68 68 68 68 68 69 70
54 48 43 45 44 40 48 57 64 72 73 72 67 59 51 62 66 65 61 59 60 61 62 61 61 62 59 54 54 60 61 65 66 65 64 66 69 71 71 70 69 65 66 70 71 71 71 71 70 70 70 69 68 68 68 68 68 67 67 67 68 68 69
53 50 44 41 38 41 51 55 64 71 72 72 71 57 46 58 64 63 62 59 59 59 58 59 60 57 53 52 54 58 60 62 65 63 65 68 69 71 71 71 70 69 67 66 67 67 68 68 71 74 72 71 71 69 69 69 68 67 67 67 67 68 69
51 50 45 40 46 44 54 61 65 68 71 71 62 44 42 57 63 64 63 60 59 58 58 59 57 55 51 52 54 60 61 63 64 62 61 63 67 69 71 71 70 69 69 69 68 68 68 69 70 69 72 72 71 70 70 70 68 68 68 68 69 70 71
51 51 44 47 48 57 61 62 68 67 68 63 45 36 46 60 62 65 63 62 62 60 58 58 54 55 57 57 59 60 62 63 65 68 69 68 68 68 69 69 70 69 69 69 68 68 68 68 70 71 70 69 68 69 70 68 67 68 68 69 70 69 70
47 47 44 43 48 56 61 62 66 65 60 44 40 53 60 63 63 64 64 63 62 61 58 57 57 58 60 61 61 60 60 60 61 63 65 68 69 69 69 69 68 68 68 68 68 69 69 69 71 71 70 67 67 67 67 68 70 71 71 70 70 70 68
53 50 45 40 34 53 65 62 62 63 51 50 60 61 64 66 64 63 63 63 63 62 59 60 59 59 61 61 61 61 61 61 61 61 61 61 61 63 65 66 68 68 66 66 66 67 68 68 68 69 69 66 65 65 64 65 70 71 71 71 70 69 69
45 44 41 39 52 58 64 61 52 58 60 63 64 62 61 63 63 62 61 61 63 63 61 60 60 60 60 61 61 61 61 62 62 61 61 60 60 61 63 63 64 65 63 64 65 66 66 66 66 67 66 64 65 64 63 66 67 69 70 69 68 68 70
51 48 50 57 61 62 64 63 62 64 66 67 66 66 64 61 62 65 61 61 63 63 62 62 62 60 61 61 63 62 61 62 62 61 61 61 61 61 60 61 62 62 62 61 62 63 65 65 64 63 63 63 64 62 63 65 65 67 68 68 68 67 66
61 62 62 64 64 64 65 67 66 66 66 69 68 66 63 63 64 64 62 64 63 63 64 62 61 61 61 61 62 63 63 63 63 62 62 61 61 62 62 61 61 60 60 60 61 61 61 63 63 63 62 62 60 61 64 65 66 67 67 67 68 67 67
50 45 63 62 62 64 65 65 67 67 67 66 66 65 63 64 65 65 66 65 65 64 63 62 61 61 61 60 60 62 62 63 62 62 60 60 60 60 61 62 63 61 59 58 58 59 58 59 61 63 62 62 60 61 62 64 65 64 66 67 67 66 66
52 51 58 63 65 64 65 63 62 63 64 66 66 65 65 66 66 66 66 66 65 65 62 62 61 61 61 61 60 61 61 62 62 62 61 59 60 61 61 61 62 61 60 57 57 57 57 56 58 59 60 60 61 60 61 62 62 63 64 66 66 65 66
56 60 61 62 62 62 63 64 64 64 63 63 64 66 66 67 66 66 66 66 65 65 63 63 61 60 61 61 60 60 61 60 61 62 62 61 61 61 60 62 62 59 59 58 57 57 57 57 57 57 57 58 60 60 61 61 61 61 63 66 65 63 63
50 50 54 59 51 50 57 62 63 64 66 65 65 65 66 65 64 64 64 65 67 67 66 64 64 61 61 61 61 61 61 61 61 61 62 61 62 62 62 62 62 61 61 59 58 57 57 57 57 57 57 58 59 61 61 60 61 60 61 63 61 61 63
49 56 59 59 59 58 59 62 65 66 66 65 63 63 63 65 66 65 64 63 63 64 65 67 65 63 62 61 62 61 62 61 61 61 61 60 61 61 62 62 61 61 60 61 60 58 57 58 58 59 58 58 58 59 60 61 61 60 58 60 62 61 61
60 63 61 62 59 57 60 65 65 66 66 65 64 64 64 64 64 65 64 63 63 63 65 64 65 64 63 64 64 62 62 62 62 62 62 61 61 62 62 61 60 60 60 60 59 59 58 58 58 58 58 59 59 60 60 60 60 60 60 59 57 59 62
58 63 63 63 63 64 66 66 66 66 66 66 63 64 64 63 64 65 64 63 64 64 63 63 65 66 64 63 64 62 61 61 62 63 63 63 63 61 61 61 61 60 60 60 59 59 58 58 58 59 58 59 59 60 59 59 60 59 59 59 60 60 61

ECMWFFLT2_sfc_temp_123.txt.gz
Temp
69 67 67 68 68 53 58 63 54 54 61 62 54 55 54 53 44 43 49 51 52 59 64 66 67 67 67 70 70 70 71 72 72 72 73 74 74 74 73 75 78 78 79 79 79 79 79 80 80 80 79 79 79 78 78 77 77 77 77 77 77 77 77
70 71 67 69 71 68 58 57 55 64 68 63 56 50 45 42 43 42 49 46 47 49 52 63 65 63 65 66 68 70 69 71 71 72 73 75 75 74 74 74 76 78 79 79 79 80 80 80 80 80 79 80 80 79 79 78 78 77 78 78 78 78 77
66 70 70 68 71 71 66 62 67 62 52 51 48 50 42 42 40 39 45 49 48 49 52 58 59 59 60 63 66 67 68 69 70 71 73 75 77 75 73 73 73 75 77 78 79 79 80 80 81 81 81 80 80 80 80 80 79 79 79 80 79 79 78
63 62 63 50 57 70 67 66 62 65 61 53 51 53 48 48 41 41 43 46 46 52 54 58 58 59 60 61 64 66 68 69 71 72 73 74 75 74 73 73 73 73 76 78 79 79 79 79 80 80 80 80 80 80 80 80 80 79 79 79 79 78 79
61 52 57 54 56 51 59 61 57 58 55 59 62 58 55 51 39 36 39 42 45 51 60 60 60 61 62 62 63 64 67 69 72 73 73 74 74 74 74 74 73 73 74 77 78 79 80 80 81 80 80 79 79 79 79 79 78 78 78 79 79 79 79
48 52 59 62 61 61 60 57 55 55 51 49 46 49 56 54 49 39 41 38 47 57 64 61 61 63 62 62 63 63 66 68 70 72 74 74 74 75 76 76 75 74 72 73 75 76 77 78 79 79 79 79 78 78 79 79 78 78 78 79 78 78 79
53 57 63 64 65 66 64 62 58 61 53 52 46 41 45 51 54 53 45 43 48 59 62 62 62 63 63 62 63 62 62 63 65 68 71 72 72 74 75 76 75 73 72 72 75 75 76 77 78 78 78 78 78 78 78 78 78 78 79 79 79 79 78
53 60 63 64 67 67 61 63 64 61 56 57 52 47 43 49 48 48 43 43 48 58 62 62 62 62 63 64 64 62 62 63 64 64 65 65 66 67 69 70 71 71 71 71 71 72 73 74 75 77 78 78 78 78 78 78 78 78 79 79 79 78 78
44 51 57 59 64 62 53 53 60 63 62 60 57 53 48 46 47 48 44 41 47 56 62 62 62 63 63 63 64 64 62 63 64 64 64 65 66 67 67 66 67 67 67 67 68 68 69 70 73 76 78 78 78 78 78 78 78 79 79 79 78 78 78
33 33 33 40 47 49 53 59 61 62 60 57 53 53 43 38 46 46 45 46 51 56 60 60 61 61 62 63 63 64 63 63 63 64 65 65 65 65 65 66 66 66 67 68 68 69 69 70 70 69 70 73 76 76 75 76 78 78 78 79 78 78 78
38 42 45 54 57 52 51 56 59 59 60 59 54 47 43 42 47 48 48 51 51 53 56 57 59 60 59 61 62 62 62 62 63 64 65 65 64 65 65 65 65 66 66 67 68 69 70 70 70 69 70 71 70 69 69 70 70 72 74 76 77 78 77
45 52 52 57 59 54 56 56 56 59 57 56 53 48 45 49 44 43 51 53 51 52 56 57 57 59 60 61 62 63 62 62 62 64 65 66 65 65 65 64 64 65 66 67 68 69 70 69 69 70 70 70 71 71 71 72 72 72 71 72 71 73 74
53 55 57 60 58 56 55 56 57 55 57 55 50 49 51 50 45 45 51 52 51 53 56 57 57 59 60 61 62 63 64 65 64 64 63 63 64 64 64 64 64 65 65 66 67 68 69 69 69 69 70 70 70 71 71 72 72 73 73 73 72 72 72
51 54 58 59 57 55 54 52 53 54 56 55 55 53 54 54 51 52 52 52 52 54 56 57 58 61 61 63 65 64 64 63 64 63 63 63 63 63 64 64 64 65 66 66 67 68 68 69 69 69 69 70 70 70 71 72 72 72 72 72 72 71 71
48 52 57 58 57 55 51 53 54 55 55 56 56 54 54 53 50 52 51 50 51 56 59 58 60 61 63 64 63 62 63 63 63 63 63 63 63 63 64 64 65 65 66 66 66 67 67 68 69 69 69 69 70 71 71 71 71 72 72 71 71 71 71
42 49 54 55 56 55 52 51 52 53 53 50 51 49 53 50 48 49 50 47 48 54 59 59 60 60 59 59 60 62 62 63 63 62 62 63 63 63 64 64 65 65 65 65 66 66 67 68 68 68 68 69 69 69 70 70 70 71 71 71 71 71 71
39 46 53 54 53 54 47 46 50 52 54 54 55 54 55 53 53 48 46 48 53 57 59 57 57 58 58 58 58 59 62 62 62 62 62 62 63 63 64 64 64 65 65 65 66 66 67 67 68 69 69 69 69 69 69 70 71 71 71 70 71 71 70
38 45 48 49 44 37 37 52 55 56 54 53 51 49 52 54 53 50 51 53 58 60 58 56 55 56 56 57 59 60 60 61 61 61 61 62 62 63 63 64 64 65 65 66 66 66 67 67 67 68 69 69 69 70 70 70 70 70 70 70 69 70 70
40 41 42 41 32 36 50 54 56 57 58 57 54 53 54 54 56 56 54 55 56 58 58 58 57 57 58 59 58 59 61 61 61 60 61 61 61 61 62 62 63 64 65 65 66 66 66 66 67 67 67 68 69 69 69 69 70 69 69 69 69 69 69
39 36 34 33 34 46 54 56 58 59 58 59 56 53 54 55 55 55 54 55 56 57 56 57 57 57 58 59 59 59 61 61 60 60 60 60 60 60 61 62 61 62 63 64 64 64 66 66 66 66 66 67 67 67 68 68 68 69 68 68 68 69 68
40 38 34 38 46 47 50 51 53 54 50 52 50 44 48 54 55 54 54 58 59 58 56 55 56 57 57 55 56 61 60 61 61 61 61 62 62 62 62 63 62 62 63 63 64 66 65 65 65 65 66 66 66 66 66 66 66 66 67 67 68 69 69
38 37 33 38 38 35 43 48 52 58 60 59 57 53 47 54 56 57 54 54 57 56 55 55 55 55 52 48 51 58 60 62 62 62 61 63 64 65 65 65 64 63 63 65 65 65 65 65 66 66 66 65 65 65 65 65 65 65 65 65 66 67 68
39 35 31 31 31 34 40 48 54 60 60 61 58 50 44 52 55 57 56 54 54 54 54 53 55 51 47 46 51 56 59 61 62 62 62 62 63 64 64 63 63 63 63 64 64 64 64 64 65 66 65 64 64 63 64 64 64 64 64 65 65 66 66
39 32 30 35 36 40 50 50 53 58 60 62 54 40 39 51 57 59 58 55 54 54 52 53 53 52 47 48 51 57 59 60 61 61 60 60 61 62 63 64 63 63 64 64 64 63 63 63 65 65 66 64 64 63 63 64 63 63 63 64 65 66 67
41 43 36 37 42 48 50 52 56 57 59 58 42 36 44 54 55 57 58 57 57 55 54 54 52 52 53 53 54 57 58 59 60 61 61 61 60 60 61 62 65 62 63 63 62 62 62 63 65 66 65 63 62 63 63 62 62 63 64 65 65 65 66
39 34 34 36 37 44 51 51 56 56 56 43 39 48 54 56 56 58 57 55 56 56 56 55 53 53 55 56 55 56 56 55 56 58 58 59 60 62 62 64 63 60 61 60 61 62 62 63 64 65 64 63 62 62 62 62 63 65 65 65 65 65 65
39 33 33 34 34 50 55 55 56 55 48 45 47 54 56 57 57 56 55 55 55 56 54 55 54 54 54 55 55 55 55 55 55 55 55 55 56 56 57 58 61 61 58 58 58 59 60 61 61 62 63 62 61 61 60 60 63 65 66 66 65 66 65
38 34 35 34 41 43 51 54 48 50 51 53 54 54 53 57 56 55 54 53 54 54 54 53 53 53 53 53 54 55 55 55 54 54 54 54 54 55 56 57 57 59 56 57 57 57 58 59 59 59 60 60 61 59 58 60 62 64 65 64 65 65 66
41 39 37 44 45 49 55 50 51 53 57 56 55 55 53 55 57 55 56 54 55 55 55 53 53 53 53 53 54 54 54 54 54 53 53 53 53 53 54 55 57 56 56 55 56 56 57 57 58 58 58 58 59 58 58 61 61 62 63 64 64 63 63
50 49 49 53 54 55 55 56 54 56 56 58 57 57 55 55 54 55 56 56 57 56 56 55 53 53 52 52 53 54 54 54 53 53 53 53 53 54 55 55 56 55 55 55 55 56 56 56 57 58 57 58 57 56 59 60 61 62 63 62 63 61 62
41 42 50 53 54 55 55 55 56 56 57 57 55 55 54 56 55 56 57 57 57 58 57 56 54 53 52 52 53 54 53 53 53 53 52 52 52 53 53 55 56 54 54 54 54 55 54 54 55 56 56 57 56 57 58 59 60 61 63 62 61 60 59
41 41 49 52 53 53 56 56 57 57 56 56 57 55 56 56 56 57 57 58 57 57 56 55 55 54 53 53 52 52 52 53 52 52 52 52 53 52 53 55 54 52 52 51 53 53 53 53 53 54 55 55 56 56 57 58 58 61 62 62 59 59 59
49 51 52 51 53 56 56 56 56 56 56 57 56 56 57 57 58 58 58 59 58 58 57 56 55 54 53 53 53 53 52 52 52 52 52 51 52 52 53 55 55 51 53 53 52 53 53 52 52 53 53 54 55 55 57 57 57 60 61 62 60 58 59
43 47 49 51 48 45 51 55 56 56 55 57 56 55 56 57 56 56 58 57 57 57 57 57 57 56 55 53 53 53 52 53 52 52 51 51 52 53 53 55 53 54 55 53 52 53 53 52 51 53 52 53 53 55 56 56 56 59 60 60 58 57 59
45 51 55 57 54 54 56 57 56 54 55 57 56 55 55 55 55 56 57 55 56 56 56 57 58 56 56 55 54 53 53 54 53 52 51 52 52 53 53 53 52 53 53 55 53 54 52 52 53 53 53 52 52 54 54 54 55 55 56 58 58 56 59
52 55 57 53 51 54 55 55 55 55 56 58 56 55 55 55 55 55 55 55 56 55 56 56 57 57 56 55 55 55 54 53 53 53 52 52 53 54 53 53 53 54 54 54 54 55 52 52 52 51 52 51 51 53 53 54 53 53 54 56 55 55 56
55 54 57 54 52 56 59 57 55 56 56 59 57 55 55 55 55 54 55 54 54 56 55 56 57 56 56 55 55 56 55 55 54 55 54 56 55 55 54 54 54 55 55 55 53 52 51 52 52 53 52 51 51 53 53 53 53 54 54 54 54 54 55

ECMWFFLT2_sfc_temp_129.txt.gz
Temp
73 72 74 73 73 62 69 70 65 68 71 70 59 59 61 61 58 55 62 59 66 72 70 73 74 73 72 73 75 76 77 79 78 76 75 76 75 77 80 81 83 82 84 83 84 84 85 86 86 85 84 84 84 83 83 82 82 84 83 82 83 83 83
76 75 73 74 74 73 72 66 68 73 76 74 65 54 53 54 48 55 60 57 59 60 58 69 70 68 68 69 70 75 74 77 77 78 76 75 74 75 76 79 82 83 83 83 84 85 86 85 87 86 84 86 85 85 84 83 83 82 84 84 85 85 83
73 75 74 74 78 78 73 69 74 67 59 58 61 58 46 47 48 53 60 59 57 57 57 62 61 62 63 66 68 69 71 72 74 76 76 75 74 75 73 76 79 81 82 82 83 84 85 84 85 87 86 87 86 86 87 87 85 86 86 87 87 85 86
70 72 74 63 67 75 74 75 72 72 70 64 58 61 56 53 45 47 54 59 56 59 56 59 58 61 62 64 65 65 67 69 72 73 75 75 73 73 73 74 75 77 79 81 83 83 83 83 84 86 86 87 87 86 86 86 86 86 86 87 86 85 87
68 65 68 64 66 65 69 70 66 68 66 67 68 65 61 52 45 47 49 52 57 58 60 59 60 62 63 63 63 65 66 66 69 72 74 74 74 72 71 71 72 75 76 79 82 83 84 84 85 86 85 85 85 85 85 84 83 83 84 86 87 85 86
64 65 70 67 67 67 68 67 62 65 64 61 56 53 64 59 53 43 48 50 59 61 64 64 64 64 65 66 65 66 65 66 66 68 70 72 71 73 74 74 72 72 74 78 80 80 81 83 84 83 84 84 83 83 84 83 82 82 83 85 85 84 86
64 66 69 69 68 68 69 70 65 68 66 65 60 50 55 59 57 57 54 52 54 62 66 67 65 65 67 66 65 62 63 65 66 68 70 70 71 70 71 72 72 72 71 74 78 79 80 81 82 82 83 83 83 83 83 83 83 82 84 85 86 85 85
67 70 71 70 68 67 66 66 67 67 64 65 64 62 60 58 56 52 52 50 53 62 66 66 67 67 69 68 64 62 63 65 66 67 68 69 69 71 71 71 70 70 70 72 74 76 77 77 80 81 82 82 82 82 82 83 83 83 84 84 85 84 84
58 63 68 69 69 68 66 65 65 65 65 64 63 62 60 56 55 54 56 49 53 58 64 66 68 69 68 66 65 64 62 64 65 67 67 68 69 70 72 71 69 68 69 70 72 74 74 75 78 80 81 81 81 82 82 83 83 83 83 83 83 83 84
45 42 46 53 58 63 64 64 63 64 65 62 62 58 56 51 52 52 54 53 55 60 64 65 66 67 67 67 66 65 65 64 65 65 67 67 68 68 69 70 70 69 68 69 69 71 73 75 77 78 80 81 81 81 82 83 82 82 82 83 83 84 83
55 58 60 62 62 63 61 60 62 62 64 66 64 61 58 54 53 53 53 56 54 58 61 62 63 63 64 66 66 65 64 65 66 66 66 66 66 67 67 68 68 69 69 69 69 70 71 74 76 78 79 80 80 81 81 82 83 82 81 81 80 79 81
62 63 62 64 63 61 61 61 60 63 63 64 63 60 56 56 55 50 56 57 56 56 60 59 59 61 63 65 66 65 65 64 64 65 66 66 66 67 68 67 67 67 68 68 69 70 70 70 72 73 75 78 80 80 80 80 81 82 81 81 79 79 80
61 61 60 62 62 61 60 61 61 61 63 65 60 56 58 58 56 52 52 54 55 58 61 60 59 59 61 64 63 64 65 65 65 65 64 64 65 66 67 67 67 67 67 68 68 69 70 71 72 72 74 75 76 78 80 80 81 81 80 80 79 79 80
61 62 62 63 61 59 60 59 60 60 62 61 61 59 60 58 52 52 52 52 54 58 60 59 60 61 62 63 65 66 65 63 64 64 63 63 63 64 65 65 66 66 67 67 68 69 69 70 70 71 71 73 74 76 77 79 79 80 80 80 80 80 79
59 60 61 62 61 60 58 59 60 60 60 61 61 60 59 59 56 54 52 52 55 62 62 61 63 63 63 63 62 62 63 63 63 62 62 62 62 63 64 65 65 66 66 66 67 67 67 67 68 70 70 71 72 73 76 77 78 79 79 79 79 79 79
57 58 59 59 61 61 59 58 60 59 58 57 59 59 60 59 54 52 50 48 53 60 64 62 61 61 59 58 58 59 61 62 62 61 61 61 61 62 63 64 64 65 65 65 65 66 66 66 67 67 69 70 71 72 73 74 76 77 77 77 77 77 77
55 56 59 58 59 59 55 58 59 58 59 60 60 60 60 61 60 52 47 49 57 61 62 61 59 59 57 57 58 58 60 61 61 61 60 60 61 61 62 62 62 62 63 64 64 64 65 65 66 66 68 69 70 72 72 73 74 75 75 75 76 76 77
54 55 57 59 56 47 50 59 60 60 59 59 57 57 58 60 63 60 60 59 60 60 62 61 58 56 55 56 59 62 60 60 60 61 61 61 62 63 63 63 62 63 63 64 65 65 64 65 66 67 68 68 70 72 73 73 73 73 73 73 73 75 75
53 55 56 52 45 49 58 62 62 62 61 61 60 60 61 61 63 63 62 61 61 61 61 59 59 59 58 60 60 61 63 62 63 62 62 62 63 63 63 62 62 63 64 65 65 65 65 65 66 66 66 67 68 68 69 70 71 71 71 72 72 72 73
55 53 52 42 46 57 60 62 63 64 63 63 61 59 61 62 63 64 62 62 63 62 61 60 60 60 60 63 64 62 62 62 61 62 62 64 65 65 65 64 63 64 64 64 65 65 66 66 66 66 66 67 67 67 67 67 68 69 70 71 71 72 71
51 52 52 52 55 57 59 58 60 62 59 61 60 56 59 63 65 65 63 62 63 62 61 61 60 61 61 61 61 64 62 62 63 62 63 66 67 68 68 68 67 66 67 67 66 67 67 67 67 66 66 66 66 66 65 66 66 66 67 68 69 69 69
55 52 49 50 50 46 55 59 63 66 67 67 65 63 57 65 66 67 64 62 63 61 60 60 61 61 60 57 59 62 62 63 64 66 66 68 69 69 69 69 69 68 67 69 69 69 69 69 69 68 67 66 65 65 65 65 65 65 65 65 67 68 68
52 52 49 48 45 52 59 61 64 66 67 68 67 62 56 61 65 66 66 64 63 62 60 59 60 58 54 56 60 63 64 65 66 66 66 68 69 70 69 69 68 68 67 67 68 68 68 67 69 69 67 66 65 64 64 65 65 64 64 64 65 66 67
55 54 50 49 53 54 58 61 64 67 68 68 65 50 51 60 65 67 67 64 63 62 62 62 60 57 55 56 61 64 64 65 66 66 66 66 67 69 70 71 70 68 68 68 68 68 68 68 71 70 70 67 65 64 64 65 64 64 64 64 65 66 66
52 51 53 54 56 60 60 62 65 66 69 66 54 47 58 63 65 67 68 66 66 64 62 62 58 62 63 62 61 62 63 65 65 68 69 68 68 68 70 69 69 70 69 68 67 67 67 68 72 72 71 68 66 65 64 64 64 65 65 66 66 66 66
55 55 53 54 57 62 64 62 65 67 63 53 53 62 62 65 64 65 67 65 65 66 64 63 64 63 62 62 63 63 63 63 64 65 68 69 70 70 69 68 69 69 70 68 68 68 68 69 71 73 72 68 67 66 65 64 65 68 67 67 67 67 66
53 52 52 49 43 58 63 63 63 64 58 61 65 64 63 65 65 64 64 65 63 66 64 64 63 62 64 64 64 65 65 65 64 65 65 65 65 66 67 68 70 70 68 68 67 67 68 68 68 70 72 68 68 67 65 65 68 69 69 69 68 68 67
54 51 49 50 60 63 65 66 61 63 66 67 65 67 64 65 66 65 63 62 64 65 63 62 63 64 64 63 64 64 64 65 66 66 65 65 65 66 67 67 68 70 68 68 68 67 67 66 66 67 68 67 67 66 65 68 70 71 71 70 69 68 68
59 57 60 61 61 63 65 63 64 64 65 66 67 68 68 66 66 65 66 61 61 64 64 63 64 63 65 65 67 66 65 66 66 65 65 65 66 66 65 65 66 66 67 66 67 67 67 66 65 64 65 65 66 65 66 69 69 70 70 71 70 69 68
59 60 62 62 63 63 64 65 65 66 65 67 68 69 67 67 67 67 67 63 64 65 66 63 64 64 64 64 65 66 66 66 65 64 65 65 66 67 68 67 66 66 67 67 67 67 66 67 66 65 65 65 62 64 67 68 70 70 70 70 69 68 69
57 53 60 62 63 63 64 66 65 65 67 67 68 68 69 68 67 67 67 66 65 65 65 64 63 63 64 63 63 64 64 65 65 66 65 65 65 66 66 65 66 67 67 67 65 65 64 65 67 68 66 66 65 65 66 69 71 70 70 69 68 68 68
60 59 61 62 63 63 64 66 66 65 65 66 67 68 68 67 67 67 66 67 65 66 65 65 64 63 64 64 63 63 63 64 65 65 65 65 65 65 64 64 65 66 66 65 65 65 64 64 65 66 66 66 66 66 67 68 70 70 69 68 69 69 70
59 60 61 61 63 66 65 64 66 68 68 67 66 67 67 67 66 65 66 68 67 67 66 66 65 63 63 65 65 64 63 63 63 64 65 65 66 65 66 65 65 65 65 65 64 65 64 64 65 65 65 66 65 65 65 67 67 68 67 68 68 68 68
58 61 61 62 60 59 65 67 66 65 66 68 66 66 66 67 65 65 65 66 67 68 67 67 67 65 64 64 65 64 64 64 64 64 65 65 65 66 66 65 65 66 65 65 66 66 65 65 65 65 65 65 66 66 66 66 67 67 67 67 67 67 68
61 66 65 66 68 67 68 70 69 67 67 67 66 66 66 67 68 67 66 64 64 65 66 68 68 66 65 64 65 66 65 65 65 65 65 65 66 67 66 67 67 67 66 66 67 66 65 65 66 66 66 66 66 66 65 66 66 66 67 67 68 68 67
66 67 67 67 68 69 67 69 68 68 67 69 68 68 68 68 68 69 68 68 66 65 66 66 68 68 66 66 66 66 66 66 65 65 65 66 66 66 66 66 66 67 67 67 67 66 66 66 66 66 67 67 66 68 66 67 67 66 66 66 66 67 68
69 66 66 67 67 65 67 69 69 68 67 70 68 67 68 67 67 69 69 68 69 67 66 66 66 68 67 66 67 67 66 65 66 66 65 65 66 65 66 66 66 67 67 67 67 68 68 67 66 66 66 67 67 69 67 67 67 66 65 66 66 67 67

ECMWFFLT2_sfc_temp_132.txt.gz
Temp
82 82 84 82 84 68 79 79 71 76 84 79 70 68 71 68 65 59 71 71 72 76 77 76 78 79 78 79 80 80 79 81 84 85 82 81 80 83 87 88 91 90 93 92 92 92 93 94 94 94 92 93 91 91 91 89 90 91 90 88 89 89 88
82 85 84 84 85 85 80 72 78 84 86 83 71 62 63 63 57 59 68 64 64 59 60 73 75 75 76 76 76 78 77 78 81 84 82 80 80 77 79 86 88 90 92 92 92 94 94 94 95 94 92 94 92 92 92 91 91 89 92 91 91 91 89
82 85 84 82 85 86 80 79 86 74 64 62 71 66 55 56 56 60 64 67 69 70 65 71 69 70 71 73 75 76 74 74 75 76 82 82 80 75 75 81 85 89 90 91 90 92 93 92 93 95 95 94 95 94 95 96 93 94 95 96 94 92 92
81 83 81 70 77 83 84 86 81 85 78 72 65 68 68 64 58 60 61 66 60 68 64 67 68 70 71 72 72 72 73 73 74 75 74 80 80 77 73 75 80 84 86 86 88 89 90 91 91 94 94 96 96 95 95 95 94 94 94 95 94 93 94
80 72 78 73 75 73 76 77 76 77 76 80 77 75 69 64 60 60 60 58 65 63 69 68 69 70 71 71 72 72 71 73 76 73 74 75 78 79 77 74 74 77 80 84 87 88 89 91 92 92 93 92 92 92 93 92 90 91 93 95 96 93 94
75 72 77 76 76 77 77 75 73 76 72 66 62 60 75 70 64 55 58 57 65 66 74 72 71 73 72 73 73 72 69 71 73 74 74 75 75 78 77 75 73 74 76 81 87 88 88 88 90 90 90 90 90 90 90 90 90 90 91 94 93 92 93
74 75 78 80 79 79 78 79 76 79 78 74 67 54 64 70 70 71 68 61 63 70 74 75 73 74 73 73 73 71 70 71 71 72 74 74 74 76 78 75 73 72 73 76 80 82 83 83 86 88 89 88 89 89 89 90 89 89 92 94 94 93 92
77 78 81 79 79 78 76 78 78 77 74 76 73 71 71 67 68 64 65 58 64 68 71 72 73 72 71 73 72 70 71 71 71 71 72 73 73 74 76 76 73 71 72 72 75 79 80 81 82 85 85 87 87 88 88 89 89 89 90 91 92 90 90
66 71 75 75 79 78 75 75 76 76 77 76 76 75 74 65 69 68 63 55 61 63 69 71 73 73 71 71 73 74 71 71 71 72 71 72 73 74 74 73 73 71 71 72 73 74 78 80 79 81 83 84 85 86 87 88 88 89 89 89 89 90 89
54 52 54 56 63 70 75 75 73 74 74 72 71 65 66 58 64 66 63 62 58 64 66 66 68 69 70 72 73 74 73 71 71 71 72 72 72 72 73 74 73 72 72 72 72 72 74 77 79 79 80 82 83 84 86 87 87 87 87 88 89 90 89
63 63 64 72 74 72 67 70 71 72 73 75 73 70 64 61 65 59 64 64 59 61 64 62 64 67 67 70 71 70 70 70 70 70 71 72 71 70 71 72 73 75 74 74 72 72 72 72 74 76 76 78 81 82 83 85 86 87 87 87 86 86 87
69 72 70 73 72 69 71 69 70 72 72 70 67 62 59 61 56 55 61 64 63 63 63 63 63 65 67 70 70 70 68 67 68 68 69 70 71 71 71 72 72 72 73 73 70 71 74 73 71 72 74 75 76 76 78 80 78 82 86 86 85 85 86
71 73 73 73 72 71 70 70 70 70 71 70 68 65 68 63 57 56 58 61 61 64 64 63 62 62 64 66 65 67 67 68 68 67 67 67 66 67 68 68 68 68 69 69 70 70 70 71 71 71 71 72 74 77 78 79 76 76 77 82 84 84 84
70 71 72 73 71 68 69 68 70 70 71 70 69 69 69 66 60 61 62 60 60 62 63 63 60 62 63 65 65 65 67 66 65 65 64 64 65 65 65 65 67 68 68 68 68 69 69 69 68 70 71 72 72 74 76 79 80 80 78 75 79 83 83
67 70 71 72 71 69 66 67 67 70 70 69 70 69 67 65 63 63 62 62 60 63 65 63 64 64 65 64 62 61 63 65 66 64 62 62 63 63 63 63 65 66 66 66 66 67 68 68 68 68 68 70 72 74 76 78 79 82 83 81 80 82 82
65 69 69 69 70 70 68 67 68 68 68 65 68 66 68 67 62 62 61 58 61 65 66 65 64 64 64 62 60 60 61 64 65 63 62 62 62 62 62 64 65 66 66 66 66 67 67 68 68 69 68 69 71 73 75 77 79 81 82 81 81 81 82
64 68 69 68 68 67 62 64 69 69 69 70 70 70 69 67 68 61 63 63 66 65 64 61 61 63 62 61 60 60 62 63 63 63 62 63 63 64 65 65 66 66 66 66 67 68 68 67 68 69 70 70 69 71 73 75 77 78 79 81 81 81 82
63 65 67 68 63 54 56 67 71 71 67 67 66 66 67 70 71 68 71 68 67 66 64 60 59 61 61 60 61 62 61 62 63 65 64 64 65 67 67 68 68 68 69 69 69 68 68 68 70 71 71 70 70 72 72 73 74 74 75 76 78 79 80
62 65 64 58 52 55 64 72 72 72 71 70 68 68 69 69 70 70 69 68 67 67 66 63 63 62 62 63 62 62 63 63 64 65 67 66 66 66 66 67 68 69 70 71 70 69 68 68 69 71 71 72 72 72 72 72 73 73 73 73 74 76 77
66 62 60 49 53 64 71 71 72 72 73 72 70 66 68 69 70 69 67 64 68 67 66 64 65 64 64 64 64 63 64 64 64 66 68 69 70 69 70 69 69 69 72 72 72 69 70 69 70 70 71 73 73 72 73 72 72 72 72 71 72 73 73
57 61 60 60 66 66 69 67 67 70 67 68 66 61 65 70 71 70 69 68 69 69 68 67 67 67 67 63 60 66 65 65 66 68 71 75 75 76 75 76 74 74 75 75 74 73 72 71 70 70 71 73 73 73 73 72 71 70 70 69 70 70 70
66 60 58 59 58 53 60 67 73 76 76 75 73 69 65 72 74 73 70 68 69 67 68 67 68 69 66 60 59 63 65 69 68 71 72 76 76 77 77 76 76 75 75 76 76 76 75 73 73 72 72 72 73 73 73 73 73 71 69 68 69 69 68
62 60 56 56 52 57 66 68 72 75 77 77 75 67 61 70 74 73 72 70 67 67 68 67 68 65 60 59 62 65 65 67 71 73 73 75 77 77 77 77 76 76 75 75 75 75 75 73 74 75 73 73 74 73 73 74 74 72 70 69 69 69 69
63 61 57 56 61 60 66 71 73 76 78 76 71 53 57 67 74 74 73 71 69 67 69 70 68 63 60 64 66 70 69 69 71 73 73 74 76 77 78 78 77 75 75 76 76 76 75 76 78 77 77 74 72 72 74 75 73 72 72 71 72 72 72
62 58 61 64 64 68 71 72 76 77 77 72 58 50 56 71 73 74 73 73 72 71 69 70 66 68 68 68 68 69 70 71 72 75 76 76 77 76 77 76 76 77 77 77 76 76 75 77 79 79 77 75 72 71 72 72 72 73 73 74 73 72 73
61 62 59 60 65 68 73 75 77 76 69 56 57 66 73 73 72 73 75 74 74 73 70 70 70 69 70 69 69 69 70 70 70 72 74 76 78 78 76 74 76 77 77 76 76 77 76 77 79 79 77 74 73 72 72 72 73 76 75 74 74 73 72
65 62 59 55 48 64 74 72 72 71 63 63 69 71 72 76 74 74 73 74 73 73 71 71 69 70 70 69 69 70 71 72 71 71 71 71 72 73 74 75 77 78 76 76 75 75 77 76 76 77 77 73 73 73 72 72 75 75 75 75 74 74 73
59 59 55 54 67 70 74 72 67 70 72 75 73 73 71 74 76 74 73 72 73 74 73 70 70 71 69 67 68 68 71 73 74 73 72 72 72 72 74 75 76 78 75 76 76 75 75 74 74 74 73 72 72 72 71 75 76 76 75 75 75 75 75
65 63 66 68 71 74 76 75 72 74 75 76 76 76 74 73 73 75 75 71 72 73 74 72 71 71 70 69 70 68 70 72 73 73 73 73 74 73 72 72 73 74 74 73 74 74 75 73 72 71 72 71 71 70 73 75 75 75 75 75 75 75 75
71 72 72 72 73 74 74 75 76 75 75 79 79 77 75 75 75 76 75 73 74 74 74 72 70 70 72 72 71 71 71 72 72 72 72 73 75 76 75 73 74 74 74 74 74 73 73 75 74 72 72 72 69 70 75 76 76 76 75 74 73 73 75
65 57 69 71 71 73 74 75 75 76 77 77 78 77 76 75 76 76 76 75 74 75 75 73 71 70 72 72 71 71 71 72 72 73 72 72 73 73 72 73 74 75 75 73 71 71 70 73 75 75 73 74 72 72 74 78 78 75 75 74 73 74 74
66 66 69 71 74 74 76 76 73 73 74 76 77 77 77 76 76 77 75 76 74 75 74 73 72 71 73 71 70 70 71 71 72 72 72 71 72 72 72 73 73 74 73 72 71 71 70 71 72 73 74 73 73 73 75 75 76 75 74 74 75 74 75
68 68 70 71 71 72 73 75 77 77 76 75 74 76 76 76 75 75 76 77 76 76 74 74 72 71 72 72 71 71 70 70 71 71 71 72 72 72 72 72 72 72 72 72 71 70 70 72 72 72 72 73 73 72 72 73 73 73 73 73 74 74 75
65 66 67 70 65 64 70 73 74 75 77 76 75 75 75 75 74 73 74 75 76 77 76 75 74 72 72 72 72 71 70 70 70 71 71 72 72 72 73 73 73 72 72 72 71 71 71 72 72 72 71 71 72 74 73 73 73 72 72 73 74 74 75
66 74 73 73 74 74 74 75 76 76 77 76 74 73 74 75 75 75 73 73 73 74 75 76 75 73 72 72 73 72 72 71 71 71 71 71 71 71 73 72 72 72 72 72 72 71 71 72 73 72 72 72 72 73 73 72 72 71 72 71 73 75 74
74 78 76 76 75 74 75 77 76 77 77 77 75 75 75 75 75 75 74 74 72 73 74 75 76 74 73 73 74 73 73 73 72 72 73 73 72 72 73 72 71 71 71 71 72 71 72 72 72 72 73 73 72 74 73 73 73 71 71 71 71 73 74
73 77 77 77 76 77 80 78 78 78 77 78 76 76 76 75 75 76 74 73 74 74 73 73 75 75 74 73 74 73 72 73 73 72 72 72 73 72 72 72 71 71 71 72 72 73 73 73 72 73 72 73 73 75 73 73 73 71 70 71 72 72 73

ECMWFFLT2_sfc_temp_135.txt.gz
Temp
87 87 88 89 89 70 82 84 76 81 91 85 74 75 79 77 72 65 76 72 68 77 78 75 75 80 78 82 77 74 77 78 80 81 80 82 78 75 76 81 78 84 94 93 95 95 96 97 96 96 94 96 94 94 92 90 89 89 90 89 90 90 89
87 91 90 89 90 90 83 75 80 89 93 87 76 64 67 67 62 66 77 72 65 66 61 71 70 69 80 81 78 76 70 74 76 76 80 81 79 75 76 79 79 78 87 93 94 97 96 96 98 97 94 97 96 96 94 92 90 88 90 91 91 91 90
87 91 89 86 90 92 83 83 91 79 68 67 75 70 58 61 60 64 71 76 74 71 62 70 69 72 74 77 78 73 70 69 71 75 78 77 79 78 78 79 79 79 76 84 92 94 95 94 95 97 97 97 98 97 98 96 92 93 93 92 92 93 93
87 87 85 72 81 88 91 91 85 90 82 73 67 70 70 69 61 62 65 72 61 62 66 69 68 71 72 75 75 74 75 69 70 71 74 73 73 74 77 81 78 76 77 75 76 88 92 85 86 94 96 98 98 97 98 98 92 92 93 94 94 93 93
85 74 81 78 81 77 80 81 79 83 80 87 81 77 71 66 62 62 62 62 56 63 68 69 71 72 75 75 75 75 76 74 70 72 72 73 74 73 78 81 81 78 78 80 82 87 88 87 85 78 95 95 94 94 95 96 93 94 95 94 92 92 93
78 80 85 86 82 84 80 79 76 79 74 69 65 64 80 75 68 59 62 60 58 67 74 73 74 75 76 77 77 75 74 75 73 74 75 74 72 73 72 79 80 78 75 76 82 87 89 89 90 90 94 93 93 88 89 94 94 94 95 97 91 89 92
78 78 85 87 87 84 84 82 78 83 80 77 67 56 66 76 76 78 72 67 59 70 74 75 76 76 77 77 78 77 75 74 74 75 76 73 76 75 75 78 78 77 75 73 75 80 83 84 86 83 86 88 87 91 92 93 93 93 96 96 97 94 93
81 85 86 86 86 84 81 82 83 81 76 79 73 71 72 66 68 65 70 64 60 67 73 76 76 75 76 76 77 77 76 76 75 75 75 74 73 78 77 77 78 77 77 74 73 75 77 81 81 85 88 86 83 85 90 92 91 93 92 90 95 94 93
73 76 79 80 85 83 79 79 82 81 81 79 80 79 77 65 68 69 64 59 62 68 75 75 77 76 77 76 75 76 74 76 76 75 74 74 75 76 77 77 77 77 77 75 74 74 75 76 79 83 84 85 84 84 88 89 90 92 92 92 92 94 95
57 54 57 61 67 73 81 83 79 79 78 77 73 66 68 61 64 64 60 59 60 70 71 73 71 74 73 75 74 73 74 75 75 74 75 73 71 73 75 77 77 76 76 76 76 74 74 73 76 78 80 83 85 84 85 87 83 79 77 80 87 91 93
64 66 68 77 77 77 72 76 78 77 79 79 77 73 66 62 66 64 66 61 59 58 62 66 67 72 70 70 71 71 69 71 73 73 71 72 71 72 73 72 74 75 74 75 75 74 74 74 73 74 75 77 79 82 84 85 84 81 78 76 75 77 82
73 77 75 79 78 74 76 75 75 77 76 77 74 69 64 70 65 60 60 63 62 60 58 59 65 70 70 69 71 70 69 69 69 69 69 69 70 69 70 71 72 72 71 72 72 72 74 74 76 76 75 74 75 77 80 82 84 83 81 77 77 78 78
77 79 78 79 78 78 77 76 75 74 75 75 71 70 74 70 64 60 63 63 61 61 61 64 66 67 68 69 68 69 69 70 70 69 67 67 67 68 68 69 69 70 70 71 72 73 73 74 74 75 76 77 77 77 78 80 82 83 82 79 78 78 76
76 77 78 79 77 76 75 75 75 75 75 74 73 73 74 72 66 67 67 65 62 62 63 67 68 70 70 70 70 72 69 66 67 68 67 67 66 67 67 67 69 69 69 70 71 72 72 72 73 73 75 76 77 76 76 76 76 80 83 81 80 79 77
71 77 78 78 76 75 72 74 74 75 75 75 75 74 72 70 68 68 67 65 57 61 65 68 70 71 72 71 70 68 66 66 65 65 65 65 66 67 67 68 68 70 70 71 72 72 72 72 72 72 73 75 76 75 74 73 72 75 79 81 81 79 78
69 75 75 75 76 75 73 72 74 74 73 70 71 68 71 70 67 68 63 59 64 62 67 68 69 70 68 66 67 67 66 65 65 65 64 64 64 67 68 68 69 69 69 69 70 70 71 72 72 71 72 74 75 75 76 76 75 76 77 79 80 80 79
67 76 74 73 74 72 67 69 74 75 76 74 74 73 72 72 72 68 59 60 64 68 65 63 67 69 68 67 67 66 65 64 64 65 65 65 66 66 68 69 69 69 69 70 69 70 71 71 71 72 74 74 74 74 75 74 74 75 76 77 78 79 79
68 73 72 73 67 57 60 74 78 76 73 73 70 70 73 74 76 66 69 70 69 70 66 66 67 67 65 65 65 68 67 65 66 68 67 66 66 67 68 70 70 70 71 71 71 72 72 72 72 74 75 74 74 75 74 74 73 73 74 75 77 76 76
66 72 68 62 55 58 69 78 79 78 78 76 74 74 74 73 76 76 73 71 71 72 72 71 69 69 68 68 67 67 68 66 65 65 68 67 66 66 68 68 69 71 71 72 72 72 72 72 73 74 74 75 75 75 75 73 73 72 72 73 73 73 73
71 66 65 52 57 68 75 76 78 79 79 79 76 72 73 74 76 74 72 72 73 72 72 72 71 70 71 70 69 68 68 68 64 64 67 69 67 67 68 69 70 70 72 72 73 72 74 73 73 74 74 74 74 73 74 73 73 73 72 72 71 72 71
61 65 64 64 70 70 73 72 73 76 71 73 70 64 69 71 72 73 72 73 74 72 72 71 71 71 71 67 64 70 69 68 67 66 67 70 72 74 75 77 77 78 76 75 75 75 75 74 73 73 75 74 74 74 73 73 73 72 72 71 71 71 71
69 63 62 63 62 56 64 71 77 81 82 80 77 72 64 72 71 73 72 70 72 72 71 71 70 70 66 61 62 68 71 72 68 68 70 75 77 79 78 78 79 79 79 79 79 78 77 76 76 76 76 75 74 74 73 73 72 72 71 70 71 71 70
67 63 59 59 56 60 69 72 78 81 83 82 81 70 60 65 71 75 71 70 66 70 72 69 68 62 59 60 64 69 73 71 71 71 73 77 78 79 79 79 79 79 80 79 78 77 76 75 76 77 76 76 76 74 74 73 73 71 71 71 72 71 71
66 64 60 59 65 60 67 76 78 82 83 81 75 57 56 69 70 77 74 65 65 72 73 69 66 63 56 57 63 70 73 74 75 72 73 76 78 80 80 81 80 79 79 81 81 81 80 77 78 78 78 76 75 75 75 75 73 72 72 73 74 74 73
65 61 65 67 68 71 76 77 81 82 83 76 62 51 63 72 76 79 73 74 74 73 72 71 58 61 64 65 70 72 73 73 74 76 75 77 78 77 79 79 80 81 81 81 82 82 80 80 81 81 79 76 74 74 75 74 73 74 74 74 75 75 75
65 67 63 63 68 71 78 81 82 82 73 59 56 65 73 73 76 78 74 74 73 74 72 67 67 67 69 70 72 71 72 72 73 76 78 78 77 78 78 78 79 80 82 80 81 81 81 83 83 81 79 75 74 74 75 74 75 77 77 76 75 75 75
69 67 63 57 50 67 78 77 78 76 66 64 71 73 74 76 76 78 73 72 72 73 69 67 69 69 70 72 73 72 72 73 72 73 74 74 75 76 77 78 81 82 80 80 80 80 81 81 80 80 79 74 74 74 73 75 78 77 77 77 76 76 74
63 63 59 56 69 72 80 77 70 73 74 76 76 76 74 78 80 78 78 71 69 69 69 71 69 72 72 72 74 73 74 75 74 74 74 74 74 75 78 79 80 81 79 80 79 79 79 78 78 77 76 73 73 73 73 76 77 77 77 77 76 76 76
69 65 65 71 77 79 82 80 78 79 79 80 79 80 78 77 79 80 79 76 77 78 77 75 74 71 73 72 75 72 74 75 75 74 75 75 75 75 74 75 77 78 78 76 78 78 79 77 77 76 76 73 73 73 75 76 75 76 76 77 77 77 77
77 78 76 77 77 80 80 82 82 80 80 84 83 81 79 80 80 81 79 78 78 78 78 75 74 74 73 73 74 76 77 76 75 75 75 75 76 78 77 76 76 77 77 77 77 77 78 79 78 76 76 75 72 74 77 77 77 77 76 75 75 75 77
67 59 73 75 77 79 80 79 81 81 82 82 83 81 80 79 81 81 81 80 79 78 78 76 74 73 74 73 74 75 75 74 74 75 75 75 76 76 76 76 77 77 77 75 74 74 73 77 79 79 78 77 75 76 77 80 79 77 77 76 75 76 76
69 65 74 78 81 79 81 81 77 78 79 80 82 82 81 81 81 81 80 81 79 80 77 76 74 74 75 74 73 74 74 74 74 74 74 73 74 74 75 76 76 76 76 74 74 73 73 74 75 77 78 78 77 76 77 77 78 77 75 75 77 76 78
73 71 75 75 77 78 79 80 81 81 80 79 79 81 80 80 79 79 80 82 81 80 77 77 75 74 75 75 75 75 74 73 73 73 74 74 74 74 74 75 75 74 74 74 73 73 73 74 75 75 75 77 77 76 75 76 75 75 75 76 76 77 77
68 69 70 74 68 68 75 79 79 80 80 79 79 79 79 79 78 78 79 80 81 82 79 78 77 74 73 75 75 74 73 73 73 73 73 74 74 75 75 75 75 74 74 74 74 73 74 75 75 74 74 75 76 78 76 75 75 74 74 76 77 77 77
68 76 74 76 76 77 78 80 81 80 81 80 78 77 78 79 79 79 78 77 78 78 78 80 78 75 74 75 75 74 75 73 74 74 74 73 73 74 75 75 75 74 74 73 74 73 74 75 75 75 75 75 75 76 76 76 75 74 74 73 76 78 77
78 80 78 79 77 76 78 81 81 81 81 81 79 79 79 79 79 80 79 78 77 77 78 78 78 77 75 76 77 75 74 75 74 75 75 75 75 74 75 74 74 73 73 74 74 73 75 75 75 75 76 76 76 78 77 77 76 74 73 74 74 75 77
75 81 80 80 80 81 83 82 82 82 81 82 79 79 79 79 79 80 78 78 78 78 77 76 77 78 77 76 77 76 74 75 75 75 74 74 76 75 74 74 74 73 73 74 74 75 75 75 75 76 75 76 77 78 77 76 76 74 73 73 74 74 75

ECMWFFLT2_sfc_temp_138.txt.gz
Temp
88 88 89 88 91 69 81 83 75 79 89 84 74 75 77 75 70 65 71 66 65 73 74 73 74 72 71 73 73 73 72 71 72 72 70 71 74 78 77 77 78 79 85 86 91 92 93 93 94 91 87 88 87 87 88 86 86 88 88 86 87 87 87
90 93 91 90 90 89 83 74 78 88 92 88 73 62 65 65 60 64 75 59 61 62 53 72 74 69 71 73 72 73 71 71 70 68 69 70 73 77 77 77 78 79 81 83 82 90 94 93 93 92 86 90 89 90 89 88 87 86 89 88 89 88 87
87 91 90 85 89 92 83 80 91 76 67 66 73 68 58 59 58 63 70 62 63 64 59 68 67 71 72 73 73 72 71 71 71 69 69 73 75 73 74 76 76 76 77 79 81 82 80 81 85 81 89 90 91 91 91 91 89 90 91 91 90 89 89
88 88 85 71 79 88 91 91 85 90 81 74 67 70 69 67 59 59 63 58 55 65 61 69 67 68 71 71 72 73 72 72 73 72 73 71 70 73 74 77 76 77 77 77 78 80 82 83 84 88 89 86 83 89 92 90 89 90 90 90 90 90 91
86 74 82 76 82 78 79 80 79 81 80 86 81 79 72 65 61 61 59 55 54 64 69 70 69 69 72 72 71 73 72 73 74 74 75 72 72 72 75 74 76 77 77 78 79 78 81 84 87 84 84 82 80 78 80 86 87 88 90 91 91 90 91
76 77 86 84 86 84 81 77 75 78 73 69 62 60 78 76 67 57 61 56 56 65 69 69 68 73 71 74 75 73 72 71 73 73 73 73 71 73 73 72 76 73 76 78 79 78 81 84 87 83 81 82 81 82 85 84 85 88 90 91 89 89 90
78 82 88 89 89 87 85 82 77 82 80 75 67 54 65 71 70 72 68 61 53 64 68 69 65 68 71 71 74 71 68 68 71 72 71 72 72 71 71 71 71 72 75 77 76 77 77 79 82 79 79 78 78 81 83 81 78 76 80 83 90 89 91
83 86 89 88 88 85 81 83 85 81 76 78 74 71 72 65 67 64 65 58 56 68 68 67 69 66 66 66 66 67 68 67 68 70 70 70 71 71 70 69 72 72 70 72 75 76 76 76 77 81 81 77 77 77 78 80 77 77 78 77 78 86 87
69 75 80 81 85 83 79 78 82 84 82 79 79 77 75 64 67 68 62 55 54 62 69 70 71 69 66 67 67 69 67 67 66 68 69 70 70 70 70 69 70 71 72 72 72 74 75 75 76 77 77 77 77 75 77 78 77 76 77 79 80 82 81
56 55 58 61 66 73 80 83 83 83 79 77 74 66 67 58 64 66 61 58 57 67 69 70 68 69 69 70 69 70 68 67 65 67 69 69 70 69 69 69 70 71 73 74 75 76 75 75 74 75 76 77 76 75 76 77 79 77 79 80 78 81 80
62 63 68 77 80 77 73 77 79 80 81 82 76 72 65 60 65 63 63 63 60 61 66 65 65 66 65 67 69 69 69 69 68 66 66 68 68 67 67 68 69 71 72 73 75 75 75 75 75 75 74 75 76 77 77 79 83 82 81 80 80 81 80
73 76 75 79 79 74 76 75 76 79 78 78 74 69 63 70 64 58 62 64 64 62 66 65 66 66 67 69 69 69 69 68 68 69 68 68 68 68 68 67 67 69 70 71 72 74 75 75 75 75 74 74 76 77 78 80 80 80 81 80 80 80 80
78 80 79 80 79 78 77 77 77 75 77 76 72 71 75 73 65 60 62 64 63 64 67 68 66 67 67 68 69 69 68 69 69 68 66 66 66 68 68 68 67 68 70 70 72 72 73 74 75 76 77 78 78 78 78 78 79 78 79 79 80 80 79
79 80 79 80 78 77 77 77 77 78 77 76 75 75 76 73 66 67 65 66 63 67 69 69 67 68 69 70 72 71 69 68 68 68 66 65 64 65 66 67 69 70 70 70 71 72 72 73 74 75 76 77 77 78 78 78 78 79 78 77 77 77 79
72 76 78 79 78 76 73 75 76 77 77 77 77 76 75 72 71 68 66 64 63 68 70 70 72 72 71 71 70 68 68 69 68 67 66 65 64 65 66 67 68 69 70 71 71 71 72 72 73 73 74 76 77 77 77 77 76 77 78 78 78 77 77
67 75 76 77 78 77 75 74 76 76 75 71 75 72 72 70 65 64 65 62 64 67 71 72 71 70 69 68 67 67 67 68 68 67 66 66 65 65 66 67 67 68 69 69 70 70 71 72 72 73 73 74 75 74 75 75 75 76 76 76 77 79 78
66 75 78 76 75 72 67 69 74 77 77 76 78 76 75 74 73 68 63 63 68 69 70 69 69 70 69 69 67 66 67 68 68 68 68 68 67 65 65 66 67 68 70 70 70 70 71 71 72 73 73 73 73 73 74 74 76 76 75 74 76 75 74
66 73 75 76 69 57 59 74 80 80 75 75 72 71 73 74 76 70 72 71 71 71 70 69 67 67 66 66 68 70 69 68 68 69 68 69 69 68 67 66 67 69 71 72 71 71 71 72 73 74 74 73 73 74 74 75 74 73 73 72 72 72 72
64 70 71 63 55 58 72 79 79 80 80 78 74 75 76 75 76 76 72 71 71 70 72 70 69 68 69 70 69 69 70 70 69 69 69 68 68 68 67 68 69 70 72 73 72 71 72 72 73 73 73 74 74 74 74 73 73 72 72 72 71 70 70
70 65 65 53 57 69 76 77 80 81 81 79 77 73 77 76 74 74 72 69 70 71 70 69 70 70 70 72 71 70 70 71 70 69 69 70 70 69 68 68 68 69 71 73 73 71 73 73 73 73 72 73 73 72 73 73 72 72 72 71 70 70 69
60 64 63 63 71 71 75 74 75 77 72 74 71 64 65 72 75 75 72 73 73 71 71 71 71 71 71 67 67 73 70 70 71 70 69 70 71 72 72 73 71 71 72 74 75 75 74 74 74 73 73 73 72 72 72 72 72 72 71 70 70 70 69
69 63 61 62 61 57 63 70 78 82 83 81 78 72 64 74 76 76 73 68 64 65 69 70 70 70 65 62 63 69 72 74 72 72 71 71 70 71 71 71 71 71 73 76 77 77 76 75 75 74 74 72 71 71 70 70 71 71 70 69 70 70 70
66 64 58 58 55 56 67 73 79 82 84 82 82 71 59 69 75 76 75 71 67 67 69 70 71 64 59 57 62 69 71 73 76 74 73 72 71 70 69 70 72 71 73 74 75 75 75 74 75 76 75 75 75 72 72 71 71 70 69 69 69 69 69
64 62 61 59 65 61 67 75 80 83 84 82 75 56 55 67 74 75 74 72 69 69 70 70 68 65 62 62 62 71 73 74 74 75 74 72 70 69 71 75 77 76 74 73 77 78 77 76 78 77 78 76 74 74 74 74 72 71 71 72 72 72 72
64 60 62 66 65 71 76 78 82 83 84 77 60 51 58 72 74 74 74 71 70 69 67 68 64 68 68 66 69 71 73 72 73 76 77 76 75 71 72 75 78 78 80 81 80 79 77 78 79 79 78 76 74 73 73 73 72 73 73 73 73 73 73
64 65 62 62 67 71 77 81 83 82 74 59 58 66 76 75 73 75 75 72 71 69 68 69 70 69 71 71 72 72 72 73 74 75 76 76 76 76 75 76 76 77 79 78 80 81 81 81 81 79 77 74 73 73 73 73 74 76 75 74 74 74 73
67 65 62 59 50 65 79 79 76 76 66 64 71 73 76 79 74 76 73 73 72 72 69 72 70 70 71 71 72 72 73 74 74 74 73 73 73 74 74 75 78 79 77 77 78 78 79 79 79 78 77 74 73 73 71 73 76 76 76 76 76 75 73
63 62 59 54 65 72 80 78 66 71 73 77 77 77 74 79 79 76 74 74 75 75 71 70 71 71 71 71 72 71 72 74 74 74 74 75 75 74 77 77 78 79 77 77 76 76 77 77 77 76 75 73 73 72 71 74 75 76 76 76 75 75 75
67 62 64 69 75 79 81 80 77 78 79 81 79 80 79 77 76 77 74 72 74 75 72 71 72 70 71 71 72 71 73 74 74 73 74 74 74 74 73 74 75 76 76 75 76 76 77 76 76 75 75 74 73 72 74 75 74 74 75 76 75 75 75
78 77 75 76 78 80 80 83 82 80 81 84 83 81 78 80 80 77 75 75 74 72 73 71 72 72 71 71 72 73 76 75 75 74 74 74 75 76 76 75 75 75 75 76 76 77 77 78 76 75 76 76 73 74 77 77 76 75 75 75 74 74 75
67 58 72 75 76 79 81 80 82 82 83 83 83 81 80 80 82 79 78 76 75 73 72 72 72 71 72 72 73 74 74 74 74 74 73 74 75 75 75 75 76 75 75 73 72 73 73 76 78 78 77 77 75 75 76 78 77 76 76 75 74 75 74
68 66 71 76 80 81 82 80 78 78 80 82 83 81 81 81 82 82 81 80 75 74 71 71 72 72 74 73 72 73 74 73 74 74 74 73 73 74 75 76 75 75 74 73 72 72 72 73 75 76 77 76 76 76 77 77 78 76 75 75 76 76 77
72 72 74 75 78 79 79 80 81 82 81 80 81 81 81 81 80 80 81 82 81 78 72 72 72 72 73 74 74 73 73 73 72 73 73 73 73 73 73 74 74 73 73 72 72 72 72 74 74 74 75 76 76 75 75 76 75 74 75 76 74 75 76
67 67 68 74 67 67 75 79 80 80 81 81 80 80 80 80 79 78 79 81 82 81 79 76 75 72 73 74 74 72 72 73 73 72 72 73 73 73 74 74 74 73 73 73 73 72 72 74 74 73 73 74 75 77 76 75 75 73 73 74 75 74 74
67 74 76 74 74 73 72 77 82 81 81 80 78 77 78 79 80 80 79 78 79 78 79 79 76 74 74 75 75 74 74 73 73 73 73 72 72 72 73 73 73 72 72 73 73 72 73 74 74 74 74 75 75 75 75 75 75 73 73 73 74 75 73
76 78 78 77 75 73 76 75 79 81 81 80 79 79 80 80 80 81 80 79 77 77 78 77 77 75 75 76 76 74 74 74 74 74 74 75 74 74 74 73 73 72 72 73 72 72 74 75 74 75 75 76 75 77 76 76 75 73 73 72 71 72 73
72 75 78 79 79 77 80 81 82 82 81 82 79 79 79 79 80 81 79 78 78 78 76 75 76 77 76 76 76 75 73 74 74 74 74 73 75 74 74 73 73 72 72 73 73 74 74 74 75 75 74 75 76 77 76 76 75 73 73 73 72 72 72

ECMWFFLT2_sfc_temp_141.txt.gz
Temp
80 79 84 83 84 58 67 72 61 67 78 74 60 62 67 66 57 48 58 53 57 65 65 68 70 69 67 70 70 69 68 69 69 69 69 70 70 72 73 74 75 76 78 78 79 80 83 85 85 85 83 84 83 82 82 81 81 82 81 81 81 81 80
81 86 84 83 84 81 73 62 67 79 82 78 62 53 53 52 46 46 54 51 51 54 48 63 65 65 67 66 69 68 67 68 67 67 68 68 70 71 73 73 74 75 75 76 78 79 79 81 86 83 82 84 81 81 82 82 82 81 82 82 82 82 81
82 86 83 77 81 85 72 69 83 67 54 57 61 58 46 47 47 44 50 53 51 53 50 58 58 58 59 61 63 63 63 63 64 66 67 68 70 71 71 72 72 72 72 74 76 78 78 78 78 79 77 76 76 74 73 74 78 83 85 85 84 83 83
80 80 74 59 67 79 83 82 74 80 71 61 56 59 57 55 48 46 44 52 46 54 52 56 57 60 60 62 61 61 63 62 64 64 66 66 69 69 71 71 70 71 72 73 75 75 76 76 75 77 78 77 76 74 74 75 74 71 72 79 82 84 85
79 63 70 66 69 63 68 69 66 71 71 73 67 67 61 56 48 46 45 43 48 54 58 58 59 61 61 61 61 62 62 64 65 66 66 68 68 69 69 70 70 71 72 73 74 75 76 78 76 76 78 76 75 75 75 74 73 73 73 72 72 73 79
63 69 79 78 78 76 71 67 67 69 64 59 52 49 68 65 52 44 46 42 51 57 65 62 61 62 61 63 63 63 64 65 65 67 67 68 68 68 69 69 70 70 71 72 74 75 75 75 78 77 77 76 76 76 77 75 74 73 73 73 74 74 75
66 75 81 84 83 82 78 74 69 73 68 63 55 42 51 60 61 66 54 47 47 60 63 63 62 63 63 64 64 63 64 65 66 67 67 67 69 68 67 68 69 69 69 70 72 73 74 74 75 75 74 74 76 77 77 76 75 74 75 75 76 77 76
73 79 83 82 83 80 75 75 75 72 66 67 62 59 60 53 57 51 51 43 47 60 64 64 63 63 63 63 63 63 63 65 66 66 66 66 67 67 68 68 69 69 69 69 69 70 72 73 73 73 73 73 74 75 76 75 74 74 76 76 76 75 75
55 60 68 71 76 77 70 67 70 76 75 75 72 70 62 53 56 59 48 39 47 59 65 65 65 65 64 63 65 65 63 63 65 66 66 66 66 67 67 67 68 68 69 69 70 71 70 70 71 72 72 71 72 72 74 75 75 75 75 75 76 77 76
41 41 42 47 53 60 67 74 74 77 76 71 64 54 54 43 54 58 48 46 53 59 63 63 64 64 64 65 64 65 64 64 64 65 65 65 64 64 65 65 66 68 69 70 70 70 70 70 70 70 71 72 72 72 72 74 75 74 76 75 75 75 76
50 53 53 67 70 67 62 70 73 74 77 77 68 57 50 46 52 50 53 54 52 56 59 60 61 62 62 63 63 63 63 65 66 66 64 64 64 65 65 65 65 68 69 69 69 70 69 69 69 70 71 71 71 72 73 73 75 76 76 75 75 76 76
62 68 68 73 74 69 71 70 70 73 72 72 68 58 53 57 54 43 55 56 54 55 58 59 60 62 62 63 62 63 63 64 64 65 65 65 64 64 65 66 66 66 68 69 69 70 71 70 70 70 70 71 71 71 71 72 73 75 76 75 74 75 76
71 73 73 75 74 73 71 71 70 70 71 70 66 63 67 61 50 47 54 58 56 57 61 62 62 62 62 62 63 63 64 65 66 65 64 63 62 63 63 64 66 67 67 67 68 69 70 71 70 69 70 71 71 71 72 73 73 74 74 75 75 75 76
70 71 73 74 71 69 70 70 71 71 72 70 69 69 69 63 56 59 59 58 58 60 62 63 63 65 65 64 65 65 64 63 64 64 62 61 61 62 63 64 65 66 67 68 68 69 69 69 70 70 71 71 72 72 72 73 73 74 74 73 73 73 74
64 70 73 73 72 69 66 67 68 71 70 70 70 71 67 63 60 61 61 57 55 61 64 64 65 65 65 65 65 65 64 63 63 63 63 62 61 62 63 65 65 65 67 68 68 68 68 69 70 70 70 71 71 70 70 72 73 74 74 74 74 73 73
57 68 70 71 72 71 68 66 67 68 69 65 67 60 66 63 58 58 57 54 53 59 65 65 65 64 63 62 61 61 61 63 62 61 62 62 62 63 64 64 64 64 66 67 67 68 68 69 70 70 70 71 71 70 71 71 72 74 73 72 71 71 72
53 66 70 70 70 66 59 60 64 68 70 71 69 68 69 67 67 57 52 52 60 62 64 61 61 62 62 61 61 61 61 62 62 62 61 61 62 62 63 64 64 65 66 67 68 68 69 69 69 70 71 70 70 70 71 71 72 72 71 70 70 70 70
51 64 67 68 58 47 48 67 73 72 67 68 66 63 67 69 67 59 62 61 64 65 63 62 60 61 60 61 62 63 62 61 62 62 62 62 62 62 63 64 64 66 67 68 68 69 69 69 70 71 72 71 71 72 72 71 71 70 70 69 69 69 69
51 58 60 53 44 47 62 70 72 74 75 73 69 69 70 69 69 68 65 64 64 64 64 63 63 63 64 65 63 64 65 63 62 62 63 62 62 62 63 63 64 66 67 68 68 69 69 70 70 70 70 71 71 71 71 70 70 70 69 69 68 68 68
57 53 53 43 45 61 69 69 73 73 74 73 71 62 67 69 68 67 63 64 64 63 63 64 64 64 64 65 64 64 65 65 62 62 62 63 62 63 64 63 64 65 67 67 68 69 70 71 70 71 70 71 71 70 71 70 69 69 68 67 67 68 68
49 52 50 51 61 61 64 66 67 68 62 64 59 51 57 66 67 66 64 64 64 63 64 65 65 65 65 60 59 65 65 65 65 64 63 64 64 66 67 68 67 67 68 69 70 71 71 71 70 69 69 69 68 68 69 69 68 67 67 66 66 67 67
59 50 46 48 49 47 50 62 71 78 77 74 70 62 55 67 67 68 65 63 63 63 64 64 64 65 59 54 56 63 66 67 66 65 65 66 65 66 67 68 69 68 68 71 70 71 72 73 71 70 69 68 67 67 67 67 67 66 66 65 66 67 67
53 50 46 45 45 47 56 63 74 76 77 77 75 60 49 61 67 67 66 63 63 64 63 63 64 58 52 51 56 62 66 67 68 66 65 65 66 66 65 66 67 68 68 69 69 70 71 70 72 72 70 69 68 67 67 67 66 65 65 65 66 66 67
54 52 48 45 54 52 59 67 72 76 77 78 64 48 45 60 68 68 67 64 63 64 64 64 61 56 51 52 57 65 68 68 69 67 65 64 65 66 66 67 67 67 67 69 70 70 71 71 73 72 73 71 69 69 69 68 67 67 66 67 68 68 68
53 54 49 55 55 61 67 69 75 75 77 69 50 41 51 63 67 68 67 66 65 64 63 62 56 59 59 60 63 65 67 66 67 69 69 67 66 65 68 69 71 67 66 67 67 70 70 72 74 74 72 69 68 68 69 68 67 68 69 69 69 68 69
52 51 49 49 55 59 67 68 73 71 67 47 45 58 66 67 67 68 68 66 65 65 63 61 60 60 64 65 65 66 66 65 66 67 69 69 69 69 70 71 70 68 69 69 69 70 71 74 75 74 72 69 68 67 67 68 68 70 69 69 68 68 68
58 56 51 47 41 58 71 69 66 66 54 54 60 65 68 71 68 68 67 66 65 66 63 65 64 64 65 66 66 66 67 66 66 65 65 64 65 66 66 67 70 70 68 69 69 70 73 74 74 73 72 68 67 67 67 67 70 70 70 69 68 68 67
50 51 49 47 55 61 70 65 56 63 63 65 66 67 65 69 69 67 65 65 66 67 65 64 65 65 65 65 65 65 66 68 67 66 64 64 65 66 68 68 69 70 68 69 70 71 72 72 72 71 69 67 67 66 66 67 69 69 69 68 68 68 68
57 50 52 58 62 67 70 69 66 67 69 70 70 69 68 67 67 68 66 65 67 67 67 66 66 65 66 66 67 67 67 67 67 66 66 66 66 66 65 66 67 68 68 68 69 69 71 70 70 70 70 67 67 66 67 68 67 68 68 68 68 68 68
66 66 65 67 67 70 71 73 72 71 70 74 73 71 68 69 69 69 67 68 68 67 68 66 65 66 66 66 67 68 68 68 67 66 67 66 67 68 68 67 68 68 68 68 69 69 70 71 70 70 71 70 67 67 69 69 69 69 69 68 67 67 67
56 49 62 66 68 70 72 72 72 71 73 72 72 71 69 69 71 70 71 69 68 68 67 66 65 65 66 66 66 65 67 67 66 66 65 65 66 66 67 68 69 67 69 67 67 67 66 68 70 72 71 71 69 68 68 71 70 68 68 69 68 67 67
58 56 62 67 71 70 72 71 69 70 71 71 72 71 71 72 72 72 71 71 69 69 67 66 66 66 67 66 63 65 65 66 66 66 65 64 65 65 66 67 67 66 66 65 66 66 66 67 67 68 69 69 70 69 70 70 69 69 67 69 68 67 68
61 65 67 68 69 70 70 71 71 70 70 70 71 73 73 73 71 71 71 71 70 69 67 68 67 66 66 66 66 65 65 64 64 64 65 65 65 66 66 67 67 65 65 65 64 65 65 66 67 66 67 68 68 68 67 68 67 66 67 69 67 66 66
55 56 60 65 58 57 65 71 71 70 72 72 71 71 72 71 70 70 69 70 71 71 70 69 69 66 66 66 66 65 64 64 64 64 65 65 66 66 67 67 67 67 66 66 66 66 66 66 66 66 66 66 67 68 67 67 67 66 66 66 66 66 65
56 65 67 64 63 63 64 69 72 72 73 72 70 69 69 71 72 70 70 68 68 69 69 70 69 67 66 66 68 66 66 65 65 65 65 64 64 65 66 66 65 65 65 67 67 67 66 66 67 67 66 67 66 67 66 67 67 65 65 65 64 65 65
68 70 67 68 66 64 66 70 71 72 72 72 71 70 71 71 71 71 71 70 68 68 69 69 70 69 67 68 69 66 66 67 66 67 66 67 66 66 66 65 65 65 65 66 66 67 67 67 67 66 68 68 67 68 67 67 66 65 64 63 62 62 64
63 69 69 69 68 69 70 71 71 71 72 74 71 71 70 70 71 71 70 70 70 70 69 69 69 69 69 69 68 67 66 67 67 67 67 67 68 67 66 66 65 65 65 65 65 66 67 67 67 68 67 69 69 69 66 67 66 64 65 64 63 64 64